GFSFLT1_500_rhum_000.txt.gz
RH
17 19 16 12 8 7 6 5 4 4 4 5 5 5 4 4 2 1 1 2 2 3 4 6 6 7 7 7 7 7 7 6 6
20 21 20 17 12 10 9 7 4 4 4 4 5 5 5 4 2 1 1 2 2 2 4 6 7 6 6 5 6 6 6 6 5
23 25 24 22 20 16 12 9 6 4 4 5 6 6 5 4 2 1 1 1 1 2 4 7 6 6 6 6 6 4 4 5 4
26 25 25 25 24 20 14 10 6 4 5 6 7 6 5 5 3 1 1 1 1 2 3 4 5 4 4 5 4 4 3 3 3
20 23 24 20 17 17 15 10 6 4 5 7 8 7 6 5 4 1 1 1 1 1 2 2 2 2 2 3 3 4 4 4 4
21 19 17 14 12 14 12 8 5 4 4 7 8 8 7 6 4 2 1 1 1 1 2 2 2 2 3 3 4 5 6 6 7
13 10 9 8 9 9 7 5 5 4 4 6 7 8 7 6 4 2 1 1 1 2 2 2 2 3 4 5 5 6 7 8 7
13 9 7 7 7 7 6 6 5 4 3 4 6 8 8 6 4 2 1 1 1 1 2 2 3 4 5 6 6 7 7 5 3
21 18 12 7 6 6 7 6 4 4 3 4 5 7 8 7 5 2 1 1 1 1 2 3 4 4 6 7 7 6 5 4 3
28 23 18 13 9 9 6 5 4 4 4 4 5 6 8 7 5 3 2 1 1 2 2 3 4 5 6 7 6 5 4 3 3
27 25 23 19 14 11 12 10 6 5 4 4 6 7 8 8 6 4 2 1 1 2 2 2 3 4 5 5 4 4 3 4 3
26 26 28 28 25 21 16 13 11 9 6 4 5 7 9 9 8 5 4 3 2 2 2 2 2 3 3 3 3 2 2 2 2
25 29 29 34 35 29 24 22 13 8 6 4 6 8 9 10 10 6 4 4 4 2 2 2 2 2 2 2 2 2 2 2 2
24 26 30 33 37 40 38 34 30 26 21 14 7 9 10 11 11 9 6 5 6 5 3 3 4 4 4 5 6 5 5 3 3
21 25 26 32 36 39 43 45 41 40 38 34 23 10 11 11 12 11 8 6 6 8 8 7 7 7 7 8 8 7 7 7 6
24 22 23 26 30 35 39 44 52 52 49 45 36 20 12 12 13 13 10 8 8 8 11 13 14 15 14 13 12 11 9 7 6
28 29 24 23 25 29 35 40 47 58 60 57 53 33 20 15 14 14 13 10 10 11 13 16 19 20 18 19 20 15 17 16 15
28 32 31 25 23 24 28 34 45 55 65 64 60 47 26 20 18 16 15 12 11 12 16 17 19 22 22 25 26 17 16 22 22
26 32 32 28 24 22 26 31 39 51 69 65 66 60 34 22 24 21 20 15 15 16 20 20 22 22 22 27 20 19 22 26 48
27 28 27 27 27 28 32 34 35 50 69 67 67 65 56 36 50 28 35 24 23 21 27 23 24 22 22 20 17 19 26 50 44

GFSFLT1_500_rhum_003.txt.gz
RH
12 15 18 18 17 15 10 6 5 5 4 6 6 7 6 6 6 6 5 3 1 1 1 1 1 1 2 4 5 5 5 5 5
10 14 19 21 20 21 17 10 8 6 5 5 6 8 7 7 6 6 6 4 2 1 1 1 1 1 1 2 4 2 2 4 5
8 14 20 21 22 22 16 12 11 10 5 5 6 8 8 8 8 7 6 6 3 1 1 1 1 1 1 1 2 2 2 2 2
4 6 14 19 20 17 12 11 12 10 6 4 4 6 8 8 9 8 7 5 3 1 1 1 1 1 1 2 2 2 3 3 3
5 15 11 9 8 6 8 9 8 6 5 4 4 5 6 8 8 9 8 6 2 1 1 1 1 1 2 2 2 2 3 4 4
21 12 10 9 6 5 6 6 6 6 5 5 4 4 5 6 8 8 8 5 3 1 1 1 1 2 2 2 3 3 3 4 6
19 16 22 20 16 11 7 6 6 6 5 4 4 3 3 4 6 8 7 4 2 1 1 2 2 2 2 3 4 5 5 6 7
18 27 26 22 20 15 11 10 7 5 4 4 4 3 4 4 6 7 7 5 2 1 1 1 2 2 3 4 5 6 6 7 7
22 30 26 25 24 23 17 12 11 10 9 7 6 5 4 5 6 7 8 7 4 2 1 1 2 2 3 4 5 6 7 6 6
24 30 27 27 27 29 26 20 16 12 11 11 9 7 4 4 6 7 8 8 5 3 2 1 2 2 3 3 4 6 5 5 5
22 27 27 26 29 31 32 34 30 23 22 21 18 15 10 6 5 6 8 10 8 5 4 2 2 2 2 2 2 2 3 3 3
18 22 24 24 26 28 32 34 36 37 39 39 38 36 35 28 18 10 9 10 10 8 5 5 4 2 2 2 2 2 2 3 3
18 17 18 20 22 24 26 30 35 37 38 40 44 48 46 43 36 24 15 11 11 11 7 6 6 6 7 6 5 5 5 5 5
22 21 22 23 22 23 23 24 28 32 36 38 41 48 52 54 50 37 28 22 15 13 11 8 7 8 10 12 14 14 13 13 12
27 28 28 28 27 26 25 23 24 27 28 32 38 45 54 61 59 53 43 33 30 15 14 12 10 12 12 15 18 18 19 22 23
24 25 18 24 24 27 33 32 25 24 25 27 34 40 54 64 66 61 55 35 30 26 19 16 13 13 18 20 20 21 24 30 31
14 8 4 12 15 19 31 34 31 27 27 28 36 39 47 62 68 66 70 47 46 46 38 28 20 16 19 22 23 25 28 33 30
10 3 0 1 4 11 29 31 31 32 37 43 45 42 44 59 68 71 76 69 71 64 86 54 91 26 23 29 28 31 32 35 27
6 3 1 1 14 31 38 42 44 47 48 47 47 46 55 65 70 79 83 83 89 97 90 96 97 37 39 32 34 35 35 34 35
9 22 34 39 41 46 46 47 46 47 47 48 48 59 72 80 83 85 96 95 97 96 95 96 82 46 62 39 36 33 36 36 53

GFSFLT1_500_rhum_006.txt.gz
RH
6 9 9 16 20 19 20 20 16 10 8 6 5 5 6 7 7 7 7 8 8 8 5 2 0 0 1 1 1 1 1 2 2
5 8 8 11 15 18 20 20 16 10 9 6 5 5 5 6 7 7 7 8 9 9 7 2 1 0 1 1 1 1 1 1 1
6 6 2 12 7 6 5 7 7 8 9 7 6 5 4 5 6 7 8 8 9 10 7 4 1 1 1 1 1 1 2 2 2
5 4 18 8 11 15 11 4 4 5 5 5 5 5 4 4 4 5 6 6 8 9 9 5 1 1 1 1 2 2 2 2 3
5 16 20 14 20 16 15 12 8 5 5 5 5 5 4 4 3 3 4 5 6 8 8 5 2 1 1 1 2 2 2 3 3
6 21 16 24 20 19 19 16 12 9 7 6 5 4 4 4 4 4 5 6 6 7 7 6 2 1 1 1 2 2 2 3 4
8 21 21 26 22 25 27 26 19 13 10 9 10 10 9 9 7 6 5 5 6 7 8 7 3 1 2 2 2 2 3 4 5
8 21 22 26 23 26 28 28 28 26 19 16 14 15 16 16 14 11 10 8 7 7 8 8 5 2 1 2 2 2 4 4 5
7 18 19 24 24 24 26 29 31 31 32 33 33 33 35 35 36 35 32 24 16 11 10 9 7 4 2 1 2 2 3 4 5
9 13 19 21 25 25 24 25 25 27 31 35 36 37 39 41 43 44 44 42 36 24 15 11 10 7 4 3 2 2 3 3 3
10 10 21 18 20 21 21 21 24 25 26 29 31 33 37 39 42 47 48 49 48 44 33 18 13 11 7 5 6 5 3 4 4
8 10 21 20 18 16 17 20 23 24 25 25 26 27 28 31 36 43 51 56 58 54 48 34 19 17 14 8 8 9 11 13 12
7 10 19 20 22 23 25 26 27 26 27 29 28 26 25 26 32 39 50 58 63 63 58 50 28 18 21 24 19 11 13 16 19
6 10 15 16 20 22 20 23 27 28 31 32 33 31 28 27 33 39 42 51 61 66 64 59 43 25 27 56 57 44 17 17 18
6 7 11 11 9 6 6 4 10 16 13 15 31 30 29 33 39 45 45 47 55 64 68 66 67 43 30 32 60 86 31 26 23
6 6 7 8 6 4 2 0 1 2 4 25 32 36 40 45 49 49 49 50 58 68 76 80 86 58 61 57 93 95 95 57 31
6 7 7 7 8 5 2 2 2 10 33 38 42 44 47 51 51 51 52 60 73 83 91 90 93 87 73 82 97 98 97 86 77
5 5 6 6 4 5 12 30 38 37 42 45 47 45 46 51 57 61 70 78 86 94 95 91 90 95 96 100 96 99 98 98 84
10 8 9 9 17 28 34 38 39 35 42 47 56 58 66 66 59 68 80 92 99 97 95 90 91 87 89 100 98 96 97 98 82
20 22 21 22 25 33 41 45 46 48 57 64 67 71 73 74 75 63 89 79 93 90 95 92 92 80 77 100 99 99 98 100 96

GFSFLT1_500_rhum_009.txt.gz
RH
6 5 7 4 6 9 6 5 4 6 8 8 8 7 6 5 5 5 6 6 7 7 7 8 9 8 3 0 1 1 1 1 1
7 5 6 6 13 9 15 12 8 3 4 7 7 7 6 5 5 4 4 4 5 4 6 7 8 8 4 1 1 1 1 1 1
6 5 4 19 10 18 16 14 13 11 6 5 5 5 5 5 4 4 3 3 3 4 6 6 7 8 6 2 1 1 1 1 2
3 5 9 22 17 18 18 17 15 14 11 8 6 5 5 4 4 4 5 6 7 7 6 6 7 8 8 3 1 1 2 1 2
5 5 12 20 23 19 22 23 24 20 16 12 10 8 8 7 8 8 10 11 10 11 10 9 8 9 8 4 1 1 2 2 2
14 8 10 20 22 19 22 27 29 30 29 24 19 18 21 24 26 28 29 31 32 30 27 26 23 18 12 9 3 1 2 2 2
15 13 9 17 19 21 20 24 26 29 32 33 34 35 36 38 40 41 42 40 40 39 38 37 35 30 22 15 8 2 2 2 2
13 12 12 12 18 20 22 23 23 24 25 26 28 31 34 35 37 38 39 42 44 44 45 44 44 40 34 27 28 16 2 2 2
21 16 11 11 14 19 20 21 21 21 21 23 26 26 26 28 28 30 30 33 40 45 50 53 54 51 42 32 20 27 16 6 2
21 20 17 11 9 18 20 19 18 17 18 21 24 26 26 28 28 28 27 29 34 41 47 56 61 63 58 47 27 17 37 24 7
19 17 13 8 8 10 20 22 20 20 24 27 27 27 28 28 29 31 29 29 32 38 45 53 55 64 64 56 50 25 18 24 24
13 11 9 8 7 8 14 18 21 25 26 25 25 24 21 13 25 30 30 32 36 41 45 47 51 56 66 61 56 56 35 25 40
8 7 7 7 6 7 11 12 15 19 18 14 10 8 9 6 25 32 33 37 43 48 50 49 50 58 68 72 76 87 64 32 42
6 7 7 7 6 6 8 7 6 6 6 6 3 2 1 7 32 36 39 45 49 52 52 52 57 69 80 90 94 92 90 61 73
6 6 6 6 6 6 6 7 7 6 5 6 3 4 17 37 39 42 44 47 52 55 56 61 72 82 90 93 82 84 95 94 86
5 6 6 7 7 7 8 7 5 5 4 5 9 23 37 40 42 44 50 56 61 65 66 75 84 92 95 94 92 88 79 88 93
3 3 3 3 4 4 5 5 5 5 10 22 30 27 34 42 47 57 65 69 70 71 76 83 89 87 82 77 76 91 100 94 92
11 12 14 16 17 20 25 28 32 32 36 36 34 37 42 50 64 69 75 74 78 85 94 93 89 88 73 63 63 86 92 95 98
23 23 24 25 25 25 27 29 32 37 43 56 66 60 59 57 42 73 76 75 81 87 94 100 94 86 67 44 68 92 95 98 100
36 40 41 42 42 42 42 43 45 50 48 49 46 46 61 60 38 18 57 57 87 78 94 100 96 86 63 55 70 91 92 94 100

GFSFLT1_500_rhum_012.txt.gz
RH
9 7 6 7 9 9 15 15 13 12 11 6 4 5 7 6 6 5 5 4 4 3 3 4 6 7 7 8 8 5 1 1 1
9 8 5 4 18 11 17 14 14 13 12 11 7 5 5 5 5 4 4 4 5 6 8 8 8 9 9 9 9 6 3 1 1
7 6 4 6 18 14 17 18 18 18 16 14 12 10 8 8 8 8 8 9 11 14 17 21 23 25 24 21 17 12 6 2 1
8 5 4 6 17 17 18 19 22 25 28 26 21 19 17 18 20 25 29 32 32 32 33 34 32 32 32 30 27 21 12 5 2
12 13 10 6 15 19 21 22 24 27 30 32 34 35 36 35 35 34 35 38 38 38 37 36 36 36 36 37 36 34 32 15 4
15 16 14 12 10 18 20 24 22 24 25 25 26 28 31 32 32 31 32 32 33 34 35 36 38 39 42 45 46 42 34 35 23
11 12 13 13 10 12 18 20 24 25 23 22 22 23 25 26 26 26 26 27 28 28 30 33 36 40 42 44 48 54 51 33 34
13 13 18 22 14 8 11 17 21 20 21 20 20 21 24 25 26 27 27 27 28 29 29 30 34 39 42 45 47 59 63 61 43
19 23 24 24 21 15 11 9 15 21 20 19 18 22 26 28 27 27 26 25 29 30 30 31 35 38 42 47 50 53 62 64 63
21 24 24 21 18 16 11 8 8 12 21 21 21 25 27 28 27 25 21 15 16 27 31 34 38 44 47 48 49 54 63 67 67
22 22 20 16 14 13 10 8 8 8 13 18 21 23 25 24 22 13 9 9 16 31 33 38 43 48 50 50 51 55 66 77 81
12 12 13 12 11 9 8 8 7 7 7 12 17 19 16 9 5 2 1 2 19 35 36 41 46 50 53 53 55 63 77 81 85
8 8 8 7 7 7 7 7 7 6 6 7 9 9 7 6 5 2 3 12 33 37 41 46 49 54 56 57 62 72 80 88 83
7 7 7 7 7 7 7 7 7 7 7 7 7 7 5 4 4 4 11 31 38 38 43 48 55 62 64 66 72 78 86 78 73
4 3 4 4 4 5 5 6 7 7 7 7 7 6 6 5 4 15 34 40 38 42 50 62 67 71 72 73 80 86 83 66 62
6 8 9 10 10 11 12 10 9 9 8 8 8 8 9 18 38 41 38 44 51 58 67 70 74 74 75 77 89 81 71 66 47
18 20 22 25 26 29 30 29 28 26 25 24 23 25 33 43 48 52 60 67 67 76 80 71 69 74 73 84 91 84 81 65 43
20 20 22 25 28 32 38 40 41 41 45 47 47 43 40 47 67 66 66 66 70 69 65 67 72 74 86 92 88 93 80 64 53
30 30 31 32 32 34 35 35 34 34 33 34 32 30 27 25 22 36 45 43 49 55 75 76 79 85 91 81 87 88 90 67 64
26 23 22 24 25 25 28 28 26 25 23 22 20 19 20 21 20 16 23 33 47 66 77 96 95 96 96 91 92 87 89 73 69

GFSFLT1_500_rhum_015.txt.gz
RH
9 10 9 6 6 12 11 17 14 16 15 14 14 11 7 6 5 5 5 6 7 8 10 12 16 21 24 26 26 24 22 15 8
7 8 8 6 5 16 14 17 17 17 21 22 18 14 12 10 9 10 12 17 22 27 31 31 31 31 30 30 30 31 31 29 22
8 8 6 3 5 15 18 19 20 21 22 26 30 31 29 28 31 34 33 33 33 33 33 31 30 30 30 31 32 35 37 38 38
10 11 10 7 4 9 20 21 22 22 24 25 27 28 30 32 32 33 33 32 32 32 31 31 31 32 32 34 35 36 37 40 45
13 14 15 15 12 7 12 20 22 23 23 23 24 24 25 25 26 26 26 26 26 27 28 28 29 30 31 33 35 37 38 41 43
12 12 12 13 14 12 9 10 16 19 23 24 23 22 22 22 23 24 24 25 25 25 25 25 26 26 29 32 35 38 40 42 48
14 13 13 13 15 19 21 17 11 12 16 20 20 20 20 19 21 25 26 26 26 24 20 19 25 28 29 32 35 37 40 44 47
16 16 15 15 19 24 25 23 21 17 13 11 16 20 19 19 20 24 27 28 27 25 22 14 8 19 30 31 35 38 42 46 48
19 20 20 21 21 22 23 21 18 17 15 11 9 10 19 21 21 23 26 27 26 23 18 7 3 11 26 33 37 39 44 49 50
26 27 26 24 22 21 22 17 14 13 12 9 8 8 8 12 18 19 22 22 17 11 5 2 3 14 31 36 39 42 47 51 53
15 14 14 14 14 13 13 13 11 10 8 8 7 7 7 7 8 13 14 12 6 4 2 3 6 23 36 39 44 46 51 54 57
12 11 10 10 9 9 8 8 8 7 7 7 7 7 7 6 6 6 7 6 5 4 2 4 14 36 40 42 45 50 57 62 65
8 8 8 7 7 7 7 7 7 8 8 8 8 8 8 8 9 8 7 4 4 4 3 9 34 43 41 45 52 61 67 71 71
4 3 3 3 3 3 4 4 5 5 6 6 6 7 7 8 8 7 6 5 4 4 17 42 44 45 51 58 66 70 73 73 74
6 8 11 12 14 16 18 18 21 23 24 23 23 23 22 20 14 10 9 13 28 42 47 50 56 62 67 70 73 69 71 75 76
17 18 20 20 21 23 26 27 28 31 36 35 39 40 41 39 40 45 48 52 58 65 73 71 67 68 70 65 65 68 71 71 67
21 22 25 28 30 33 34 34 35 35 38 34 30 26 30 39 46 49 48 47 47 48 47 54 58 48 54 68 67 77 74 77 70
33 32 33 31 28 27 26 24 22 20 22 22 20 18 15 16 17 20 21 24 25 30 35 44 52 56 52 69 86 92 93 90 87
27 24 21 19 17 16 16 17 17 19 20 24 27 26 22 17 14 17 32 60 54 47 52 64 76 88 93 96 99 100 98 94 91
19 17 16 17 20 24 26 28 31 27 27 32 38 43 47 50 50 38 41 46 72 86 94 99 97 99 98 96 97 98 98 97 96

GFSFLT1_500_rhum_018.txt.gz
RH
10 9 9 9 8 6 6 15 16 17 16 18 22 20 16 12 11 11 12 15 18 20 23 27 28 28 28 28 28 28 29 31 33
11 9 8 8 7 4 5 16 17 19 18 20 23 25 26 27 25 27 29 31 31 30 30 29 29 29 30 30 30 29 30 30 30
9 8 8 8 6 3 4 12 18 21 19 20 24 24 24 25 27 28 28 29 30 30 29 28 29 28 27 27 27 28 29 30 28
8 8 10 10 11 12 8 6 12 19 21 22 22 23 23 23 24 25 25 26 25 24 24 25 25 25 26 26 27 28 29 29 30
8 11 13 14 15 16 15 14 11 12 13 16 19 21 21 21 21 21 22 24 24 25 25 25 23 20 16 14 22 28 30 33 32
12 12 12 12 12 12 12 12 14 17 19 17 14 14 16 20 20 20 19 21 23 25 26 26 24 23 21 12 6 18 29 32 32
20 19 19 18 16 16 14 14 17 23 25 24 22 18 14 11 14 19 19 19 20 24 26 26 26 25 22 14 5 8 20 32 35
16 16 16 17 18 19 21 21 21 21 23 23 18 17 14 11 9 8 12 20 21 22 24 25 25 23 18 10 5 6 18 32 36
27 27 27 27 27 27 26 25 23 23 23 18 15 14 12 10 8 8 8 8 8 13 16 18 18 14 9 6 5 5 16 33 37
27 26 22 18 15 15 14 14 14 12 12 12 10 9 8 8 8 8 8 6 5 5 6 7 7 6 5 4 4 6 23 37 39
19 12 13 13 12 11 10 10 9 8 8 8 8 9 9 9 9 10 10 10 10 9 7 6 5 4 3 2 3 11 37 40 41
5 6 8 8 8 8 8 7 6 6 6 6 6 6 6 6 6 6 7 9 10 11 11 8 5 4 4 3 9 38 44 43 47
5 4 4 4 4 4 3 4 5 6 7 9 12 14 17 19 19 18 16 15 14 11 8 6 6 5 7 24 44 46 49 57 63
1 3 7 8 12 16 16 18 18 20 24 24 26 30 33 35 36 36 35 34 32 29 27 29 36 46 54 58 63 66 68 68 69
11 16 20 21 22 24 25 26 28 29 32 31 33 36 38 42 46 46 46 47 49 50 49 52 54 55 50 47 46 48 54 66 70
20 21 23 26 30 35 35 34 33 31 27 23 21 19 18 17 17 18 18 19 20 20 22 22 23 26 33 36 41 46 59 72 67
27 32 35 35 34 31 26 22 18 16 16 16 14 14 16 20 24 34 38 43 46 45 46 45 45 43 40 37 38 38 43 49 54
37 35 31 27 22 18 18 19 20 17 21 21 18 10 8 8 8 8 11 20 30 46 52 54 52 59 67 70 70 66 67 78 80
32 25 21 19 20 20 16 11 9 8 8 9 10 11 10 9 7 8 8 9 10 13 20 28 46 82 89 74 81 94 99 91 86
20 20 16 10 8 8 9 10 10 11 10 10 11 12 12 13 12 10 10 10 10 11 14 16 32 51 78 91 100 100 98 96 100

GFSFLT1_500_rhum_021.txt.gz
RH
13 13 10 10 9 9 8 6 7 14 17 16 15 17 19 20 22 23 21 20 21 24 27 28 27 27 27 27 26 26 26 26 25
12 12 11 9 8 8 7 3 4 13 17 18 17 18 20 23 25 25 26 29 30 29 28 28 28 28 27 25 25 26 26 26 27
11 11 10 8 8 9 9 8 6 6 12 17 18 19 20 21 23 23 23 23 24 25 26 25 25 25 24 24 22 20 20 24 27
9 10 7 8 11 13 14 15 15 14 13 12 14 15 16 17 19 20 20 22 22 23 23 24 24 25 25 22 20 18 13 9 21
9 8 9 10 12 13 13 12 12 13 13 13 15 18 18 17 15 14 16 19 20 20 20 23 25 25 26 25 25 24 22 11 8
12 14 16 19 20 19 18 17 15 14 14 15 21 25 25 23 20 17 15 11 12 17 20 20 21 25 27 28 27 25 23 14 6
23 21 21 20 19 17 17 17 18 19 21 22 22 21 22 22 19 16 15 12 9 8 8 8 13 18 21 22 23 22 16 8 5
26 27 28 27 27 26 26 26 26 26 26 26 26 24 21 15 15 15 13 11 10 9 7 6 6 6 6 7 9 8 6 4 3
25 27 28 27 26 24 18 15 13 13 13 12 11 11 11 10 10 10 10 10 10 10 10 10 10 7 5 5 5 5 4 3 3
29 28 24 21 16 8 11 12 12 11 11 10 9 8 8 8 8 8 8 9 9 10 10 10 10 12 12 11 8 6 4 3 2
19 11 6 5 5 6 7 8 8 8 7 7 6 5 5 5 5 5 6 6 7 7 7 8 9 11 12 11 10 6 5 4 3
6 4 3 2 3 3 3 3 4 4 4 6 8 12 16 20 22 23 24 25 25 26 25 25 24 21 18 14 12 9 8 11 22
5 3 3 4 6 7 8 11 15 18 19 20 21 22 23 25 27 30 33 35 37 40 40 41 43 45 47 48 49 50 52 55 57
8 10 12 14 18 19 19 20 19 21 23 23 29 31 32 33 32 30 26 23 21 19 19 19 19 19 20 20 22 24 32 40 45
11 12 16 21 22 23 26 29 31 32 32 29 26 21 17 17 19 21 21 24 28 28 28 33 35 36 33 31 28 25 24 24 24
13 17 22 27 35 39 38 36 28 21 18 16 15 15 13 11 9 9 10 12 17 16 15 15 14 16 29 38 40 42 46 47 48
28 34 40 41 37 30 22 18 18 16 11 9 8 7 8 9 9 9 10 11 11 12 12 12 12 12 12 14 26 31 36 49 55
44 42 34 25 20 17 13 10 8 9 11 11 10 10 10 9 10 11 12 12 12 12 12 12 13 14 14 14 14 16 26 41 32
31 23 21 16 10 10 11 13 14 14 15 16 17 16 16 15 12 13 13 12 12 10 9 7 8 9 10 12 14 18 24 29 30
24 19 13 12 13 14 14 16 17 18 19 19 19 19 18 16 16 16 15 14 12 11 10 10 10 8 8 10 14 19 29 42 100

GFSFLT1_500_rhum_024.txt.gz
RH
11 11 13 13 12 10 9 8 8 5 5 13 15 17 16 17 19 20 22 25 25 24 25 26 26 26 27 28 25 24 24 25 23
13 13 12 12 12 9 7 8 7 4 4 8 13 17 18 19 20 20 22 24 25 25 25 26 26 26 26 25 24 24 23 20 15
11 13 12 10 10 7 10 11 11 12 11 11 11 14 15 16 17 17 17 18 21 23 23 23 24 24 24 24 24 24 22 21 21
7 6 7 10 8 10 12 13 14 14 14 14 13 11 10 12 15 21 21 20 17 15 18 21 21 21 22 25 26 26 27 26 26
8 8 9 8 11 13 14 16 17 17 18 15 13 13 15 18 21 24 23 22 20 16 14 10 11 18 20 20 21 24 27 28 28
25 23 22 23 22 21 20 20 20 18 18 18 18 18 19 21 22 22 22 21 20 17 16 14 10 8 7 8 10 14 17 18 20
27 24 21 22 24 25 26 26 26 26 25 25 25 26 26 26 26 26 22 17 14 15 14 12 11 10 8 7 6 6 6 6 7
28 29 29 27 26 26 27 27 26 24 15 14 14 13 14 15 13 12 12 11 11 11 10 9 10 10 11 11 11 9 7 5 5
24 24 24 27 28 26 23 18 14 6 9 11 13 12 11 10 10 10 9 8 8 8 8 8 8 9 10 10 10 9 10 10 10
32 30 28 25 20 13 7 4 4 5 6 7 7 7 7 7 6 6 6 6 6 6 6 6 7 9 9 10 10 11 11 12 12
22 22 20 16 9 4 2 2 2 2 3 4 4 6 6 9 12 14 18 22 23 23 24 25 27 27 26 26 26 26 25 24 22
15 11 9 8 5 5 5 5 8 10 12 15 17 18 21 23 24 25 28 30 32 35 34 34 34 34 34 35 35 38 39 42 44
6 6 8 10 10 11 13 15 20 21 22 22 25 28 32 34 34 31 27 23 20 18 17 17 16 16 16 17 18 20 21 21 22
7 8 11 13 14 15 18 21 23 30 33 33 35 32 26 20 17 16 15 14 13 12 12 13 16 17 18 18 19 20 20 23 28
8 12 14 16 18 22 28 35 38 36 32 26 19 15 13 10 8 8 9 9 10 9 9 9 9 10 10 10 10 10 10 10 10
10 13 20 27 35 38 37 31 23 16 13 12 10 10 11 13 13 14 15 15 14 14 13 13 13 14 14 14 13 13 12 12 13
20 32 39 39 33 25 20 18 14 12 13 14 14 13 15 16 16 17 18 18 18 18 17 16 15 14 13 12 11 11 11 11 10
41 40 32 24 20 17 13 14 16 14 15 15 15 14 14 14 17 18 19 19 18 18 17 15 13 12 11 10 10 9 9 9 9
37 27 24 18 13 16 19 15 12 10 10 12 15 17 16 16 14 15 16 17 18 18 18 18 17 16 14 12 10 9 9 9 9
28 28 15 14 19 18 14 14 13 13 14 16 17 18 19 19 18 15 15 15 16 16 16 16 15 13 12 11 10 10 10 9 8

GFSFLT1_500_rhum_027.txt.gz
RH
13 12 11 11 12 12 12 11 9 7 7 4 4 7 9 14 17 18 20 20 22 24 24 26 28 28 29 29 29 27 26 25 25
14 14 14 14 13 12 11 8 8 8 8 8 7 6 9 13 15 17 20 20 21 22 22 23 24 24 24 24 24 24 25 25 25
7 8 10 11 11 9 10 7 10 12 14 14 14 14 12 13 12 12 13 14 19 21 19 17 17 19 22 22 22 22 24 26 27
10 8 8 7 8 9 8 9 10 12 14 16 16 16 14 13 13 13 15 17 23 24 23 22 20 16 13 12 17 20 20 20 22
27 24 13 10 10 11 15 19 21 20 19 18 18 18 17 17 15 15 17 20 21 22 23 23 22 20 17 15 12 9 11 17 20
27 27 28 25 23 22 21 21 23 25 26 26 27 26 25 25 25 26 25 25 26 26 25 22 17 15 16 14 13 11 9 8 8
36 30 28 27 27 28 28 28 27 26 26 26 25 24 20 13 14 14 16 19 20 16 14 11 11 12 12 11 9 9 9 9 9
39 32 29 27 27 26 26 26 27 27 24 19 10 6 5 9 12 13 12 11 10 10 9 8 8 8 9 9 9 9 9 9 9
37 35 31 30 30 29 28 26 22 15 6 4 4 5 6 6 6 7 7 6 6 6 6 6 6 6 6 6 6 6 6 7 8
38 35 31 27 22 20 18 12 6 4 3 2 1 2 4 6 7 9 12 15 16 15 18 21 22 23 24 24 25 26 27 28 27
28 25 21 16 14 11 9 8 6 6 8 10 13 16 19 21 22 22 23 24 27 29 28 28 29 28 26 25 24 23 24 26 29
29 29 24 16 9 6 7 10 12 14 16 19 22 22 24 28 30 31 31 28 26 21 18 16 14 14 14 14 15 17 20 20 20
34 33 23 14 7 8 11 12 13 13 16 22 29 33 33 28 22 17 14 12 11 10 9 9 9 9 9 9 9 8 8 8 9
35 26 14 9 10 11 16 22 28 33 34 32 26 18 13 12 12 11 11 12 12 12 12 12 12 14 15 14 14 13 12 12 11
22 10 8 10 12 22 33 37 35 28 22 18 16 13 14 14 14 13 14 14 15 16 16 16 16 18 18 18 18 17 17 16 15
8 8 13 30 40 40 34 27 22 18 15 15 16 15 12 11 10 11 12 13 16 18 18 18 18 19 19 19 18 18 17 16 16
18 33 42 45 38 30 24 22 16 14 16 17 15 12 12 13 13 13 14 15 16 17 18 18 18 18 18 18 18 18 16 15 15
37 48 46 36 29 28 26 16 15 19 18 15 14 13 12 10 12 13 15 17 18 18 19 19 19 20 20 20 20 20 20 18 17
52 44 33 30 38 32 18 19 18 16 15 16 16 15 14 11 8 13 16 18 18 18 18 18 18 18 18 17 17 16 16 16 15
43 31 34 38 25 21 20 17 18 17 17 16 16 17 19 20 19 15 16 16 17 17 16 17 16 15 14 13 12 12 12 12 12

GFSFLT1_500_rhum_030.txt.gz
RH
10 14 13 12 11 11 12 12 12 11 9 8 7 6 5 6 9 12 14 15 16 17 18 18 19 22 23 24 25 25 26 26 26
8 10 14 14 14 14 14 12 10 9 8 10 12 13 13 12 11 11 13 14 14 15 15 18 21 20 18 18 21 22 23 23 24
14 8 7 7 7 8 8 8 9 8 10 12 13 14 14 14 14 13 12 11 10 10 13 19 23 23 23 22 19 16 16 20 21
24 25 20 10 8 8 9 10 10 13 16 17 19 20 19 19 18 17 17 16 15 17 20 21 23 23 23 22 22 20 17 14 12
34 29 27 28 26 22 20 20 21 22 22 22 22 23 24 26 26 26 26 26 25 21 21 21 23 26 26 24 22 18 16 16 15
41 40 37 31 27 26 26 25 24 25 27 27 27 27 28 28 28 26 23 14 14 15 17 20 22 22 19 15 12 12 13 15 14
44 41 40 37 33 31 29 28 28 27 27 27 28 27 22 12 5 5 5 7 11 13 13 13 12 11 10 9 8 8 8 9 10
44 38 38 38 35 30 28 27 28 28 28 26 19 13 5 2 3 5 6 6 6 6 7 7 6 6 6 7 8 9 9 8 8
36 35 38 38 36 32 29 25 23 19 16 14 12 6 4 3 3 6 10 11 13 13 14 16 18 19 20 21 22 22 23 23 23
38 37 33 29 25 21 18 15 13 11 10 8 7 8 10 12 16 20 22 23 24 27 27 26 26 27 27 25 23 21 20 19 18
37 33 32 32 33 31 25 17 9 6 6 9 11 12 14 19 24 26 30 32 29 24 20 17 16 15 14 12 11 10 10 9 9
40 36 35 36 36 28 17 11 8 8 10 11 17 24 30 33 31 26 21 16 14 13 12 12 12 12 12 12 11 11 12 12 12
43 37 37 38 30 16 8 8 8 14 22 31 35 34 28 23 18 16 15 15 14 14 14 14 13 14 14 14 14 15 16 17 17
44 41 39 30 11 7 8 15 28 36 37 34 27 21 18 15 14 15 16 13 12 12 11 11 11 12 13 15 16 17 17 18 18
44 41 28 9 7 14 27 39 42 36 31 24 21 15 14 16 17 17 14 13 13 13 13 12 12 15 15 16 17 18 18 18 18
42 22 7 6 16 35 44 42 34 28 27 25 20 18 18 18 16 15 15 15 15 15 16 14 14 17 19 19 19 19 19 20 20
24 10 7 21 37 45 40 30 32 34 28 24 21 19 18 17 17 17 16 16 15 15 16 18 20 20 20 19 18 18 18 18 18
12 8 15 31 43 38 33 33 30 23 21 20 21 19 19 18 18 18 18 19 18 20 20 21 21 21 19 19 18 18 16 15 15
11 22 37 41 37 35 28 25 22 21 20 20 20 21 20 20 19 21 21 20 20 21 21 20 20 19 17 16 14 12 11 10 9
32 40 39 37 29 26 25 22 20 19 21 24 24 26 27 26 23 17 18 20 21 20 20 20 18 16 14 12 11 10 9 8 7

GFSFLT1_500_rhum_033.txt.gz
RH
6 8 12 14 14 13 11 11 13 13 12 11 8 8 8 7 5 5 8 12 15 17 16 18 17 18 17 18 18 18 22 24 25
12 8 8 10 13 15 15 15 15 14 10 9 9 12 13 14 14 14 14 13 12 12 12 12 12 15 19 20 22 23 22 18 18
22 20 15 9 8 7 7 7 7 8 9 9 10 13 14 14 17 20 21 20 18 17 15 14 14 15 18 22 23 22 23 22 21
34 31 27 24 24 19 10 9 9 9 9 11 14 18 20 19 21 24 26 27 26 26 24 22 18 16 17 19 21 23 26 25 25
42 42 40 35 31 27 27 28 27 24 23 22 21 23 28 29 29 28 29 28 27 27 26 22 16 20 25 26 26 26 24 22 18
48 46 43 41 39 38 34 29 27 27 28 28 29 28 28 28 27 25 20 11 5 4 5 6 10 14 14 13 15 15 13 12 11
38 42 43 42 40 40 38 35 32 29 28 28 28 27 24 18 20 11 5 3 2 4 6 6 7 7 8 8 8 7 7 7 6
39 43 42 38 37 38 37 35 32 29 26 23 22 20 19 15 9 6 5 4 5 6 7 9 12 14 14 15 16 18 18 20 21
35 38 38 38 37 32 29 25 23 21 19 17 12 10 9 8 9 9 11 14 18 22 23 24 26 27 28 30 29 28 26 26 25
39 40 41 36 32 31 33 34 34 29 24 17 11 8 7 9 10 11 16 23 24 27 27 28 26 24 22 19 16 14 13 12 12
43 39 43 40 37 36 36 37 35 22 15 10 8 8 10 11 14 18 24 29 31 28 22 18 16 14 13 13 13 13 13 13 13
51 44 41 44 40 39 39 38 22 12 8 8 9 17 28 32 33 33 30 26 20 16 14 14 15 15 14 14 14 14 13 12 13
56 47 43 45 44 42 38 17 6 7 8 20 32 37 36 33 29 25 21 17 15 15 16 16 14 13 12 12 12 12 12 13 13
64 51 48 46 43 34 12 5 5 13 30 40 42 36 30 26 21 17 15 15 16 18 17 15 14 13 13 13 13 14 13 13 13
56 51 47 44 32 18 9 6 12 23 33 40 35 30 31 28 24 21 20 19 18 17 16 16 17 17 16 15 14 14 15 16 17
53 49 45 36 23 15 9 10 25 35 36 34 34 32 27 25 22 21 20 19 20 20 20 20 20 20 20 20 20 18 17 16 18
49 47 36 23 17 12 11 20 37 37 36 35 30 27 23 21 21 22 23 24 24 25 26 26 26 24 22 22 22 22 22 21 20
37 28 20 16 13 27 37 39 37 31 28 27 27 27 27 27 24 25 26 26 27 27 26 26 26 25 25 25 24 23 22 20 20
23 18 15 19 34 40 39 33 29 28 27 26 24 26 27 26 25 25 29 29 28 27 27 27 26 25 24 23 22 21 20 19 18
16 18 34 43 44 38 32 30 29 27 27 27 28 30 32 31 27 22 24 27 29 29 28 27 25 23 21 20 18 18 17 16 15

GFSFLT1_500_rhum_036.txt.gz
RH
10 6 7 10 14 14 14 12 11 11 12 13 12 11 10 9 8 7 6 5 6 9 13 14 15 16 15 15 15 16 17 18 18
18 14 9 8 9 10 14 15 15 14 15 14 13 10 9 10 12 13 14 15 15 14 12 12 12 11 11 11 14 18 20 21 21
31 26 23 20 15 9 8 8 8 7 8 8 8 10 11 13 14 15 16 18 19 19 19 19 18 17 16 15 15 16 20 23 23
40 35 34 32 30 27 25 25 20 12 10 10 10 12 14 19 20 20 22 26 28 28 28 28 28 28 27 26 25 22 18 18 21
46 45 43 42 40 39 36 32 28 28 28 26 24 23 23 26 29 29 29 28 27 27 25 19 13 9 14 17 12 14 21 25 26
34 38 45 48 48 45 44 42 40 36 32 30 30 29 29 28 28 27 27 25 22 18 12 8 3 4 5 5 8 12 13 13 14
33 35 40 42 44 43 40 40 41 39 36 33 31 30 28 26 24 21 20 19 18 12 7 3 2 3 5 6 6 7 7 8 8
42 42 37 40 40 41 42 39 33 28 23 21 20 19 17 17 14 14 12 12 9 8 8 10 14 18 16 18 21 22 20 20 20
52 50 47 44 46 40 35 33 32 33 35 36 32 24 20 16 12 10 8 10 11 14 18 20 22 26 26 28 32 31 29 28 27
53 51 51 49 40 40 41 37 36 37 38 39 32 19 13 11 10 11 15 17 19 21 23 28 31 33 32 29 25 22 20 17 15
47 48 48 47 46 40 41 43 40 40 40 29 12 8 8 8 13 19 30 31 31 34 35 34 30 24 18 15 14 14 13 14 14
50 49 37 44 46 41 39 39 41 40 25 8 5 6 10 17 27 34 37 36 34 30 27 24 20 16 14 14 16 17 16 15 14
47 57 57 60 54 40 39 42 39 26 13 9 7 11 20 31 38 38 36 31 26 22 18 16 15 15 16 17 17 16 15 14 13
56 54 56 55 51 46 44 38 28 18 15 12 10 20 32 38 37 34 32 32 29 27 24 22 21 20 19 18 17 17 17 17 17
43 50 51 50 47 43 38 34 26 23 18 13 16 30 35 36 35 33 30 28 26 24 22 22 22 21 21 21 21 21 21 22 22
43 45 46 42 38 31 25 22 20 18 12 15 29 37 37 33 29 26 25 24 24 25 25 25 26 26 26 26 26 26 25 23 22
31 32 31 31 26 24 22 18 14 13 24 38 39 36 30 30 29 28 28 29 29 30 31 32 33 32 31 32 31 30 28 26 24
31 29 29 27 24 20 14 17 32 41 40 39 36 36 38 37 33 33 33 33 35 36 36 36 34 33 32 32 31 30 29 28 27
28 28 26 21 17 20 29 40 43 39 35 33 35 43 46 44 38 34 35 36 36 37 37 35 33 30 26 23 20 18 16 14 13
26 21 19 24 33 41 47 44 40 34 33 41 47 39 33 33 34 32 33 37 36 32 27 19 15 10 7 6 5 5 5 5 5

GFSFLT1_500_rhum_039.txt.gz
RH
21 16 9 6 8 10 13 14 13 13 12 11 11 12 13 13 11 10 10 9 8 6 5 6 9 12 14 16 16 15 16 18 18
32 28 19 15 11 8 8 9 12 14 15 15 15 15 15 14 10 10 11 13 14 14 14 15 14 14 13 12 11 11 11 14 18
35 34 33 31 30 26 23 19 13 9 8 8 8 8 8 8 10 10 12 14 15 16 17 19 19 19 21 21 22 20 18 16 14
42 43 41 40 37 35 35 33 31 28 27 26 22 17 15 15 15 17 19 21 22 24 26 27 28 28 28 28 27 27 27 27 26
41 42 44 47 48 47 45 43 41 40 38 34 29 28 28 28 28 29 29 29 29 28 28 26 25 19 13 9 5 4 6 16 23
34 33 34 36 39 42 46 48 47 44 43 42 40 38 35 33 31 30 29 29 28 26 24 19 16 13 10 9 4 2 4 5 6
44 43 42 43 41 38 41 40 38 38 40 37 33 27 24 22 20 19 19 19 17 17 16 14 12 10 8 8 6 6 5 6 7
46 47 47 48 48 46 39 40 40 36 32 31 32 35 36 36 35 30 23 18 15 12 9 8 9 11 14 15 21 20 19 19 22
50 52 52 50 49 49 49 43 38 40 38 37 37 38 38 37 31 20 14 12 12 10 10 12 15 18 21 23 28 28 31 32 32
55 54 51 47 47 45 43 43 43 38 40 40 41 40 38 17 7 5 6 7 10 13 20 28 38 37 36 35 35 34 32 30 27
60 49 45 46 51 49 46 46 43 42 39 39 40 38 22 12 10 9 11 15 24 32 37 38 36 33 31 28 26 22 19 16 14
52 52 49 50 59 50 48 59 53 43 40 42 38 25 16 14 13 14 19 30 38 39 38 36 32 27 23 20 17 16 16 16 16
52 57 47 53 54 54 53 51 48 45 44 41 30 22 19 16 14 15 24 37 40 37 35 34 33 30 28 24 22 21 20 19 19
57 43 30 42 51 49 49 47 44 41 37 30 24 23 20 17 18 24 32 37 36 32 29 27 25 24 23 22 22 23 23 23 22
34 21 34 41 45 45 44 38 34 29 26 26 22 19 16 20 30 38 38 36 33 31 31 32 33 32 32 31 30 29 28 27 26
24 24 25 28 30 30 30 30 27 26 23 19 17 18 27 41 40 36 33 34 36 39 39 37 35 34 33 32 32 32 31 30 29
37 37 38 36 32 30 30 28 23 17 14 20 32 42 40 39 35 36 43 49 44 38 36 37 38 37 38 38 37 36 35 34 32
46 40 36 31 28 26 22 17 14 19 31 41 43 43 40 43 49 53 43 38 39 42 44 43 41 38 34 30 26 22 18 16 12
34 27 26 26 20 17 13 21 35 43 47 47 50 57 57 56 48 40 43 47 46 44 38 29 22 16 12 9 8 8 8 8 7
24 25 22 18 18 18 30 42 48 54 54 59 66 66 53 43 46 44 46 45 32 23 18 12 9 9 9 9 8 6 5 5 5

GFSFLT1_500_rhum_042.txt.gz
RH
28 28 25 18 13 8 7 7 10 12 14 14 14 14 13 12 13 14 14 12 10 10 10 11 10 7 6 8 10 11 14 15 17
32 32 32 32 26 21 20 18 13 9 8 9 11 12 12 13 13 14 13 10 10 11 14 14 15 16 16 16 16 16 16 15 15
35 36 36 34 32 32 32 32 31 29 28 26 22 18 15 11 10 9 10 10 10 11 15 18 19 19 20 22 24 25 26 27 26
43 43 40 38 39 39 40 41 39 39 38 37 36 34 32 29 28 28 28 26 26 26 26 27 28 29 29 29 28 28 28 28 27
40 37 36 36 37 38 41 43 44 44 44 44 43 42 41 40 39 38 36 33 32 30 30 29 28 28 27 25 20 17 11 7 4
40 40 40 37 37 38 38 37 38 41 41 42 41 40 39 37 34 32 29 26 25 22 20 19 20 21 20 20 16 12 8 14 6
44 44 45 44 44 43 44 46 46 40 37 37 37 36 33 32 33 34 35 36 35 34 31 25 21 15 11 9 8 10 11 12 15
47 48 46 45 47 48 45 43 44 46 46 40 37 38 37 37 37 37 37 33 15 10 9 9 10 10 10 9 10 14 16 20 25
54 50 51 53 52 48 44 43 42 40 39 42 42 37 34 35 34 35 33 16 14 16 10 6 7 9 13 13 17 24 27 31 32
65 59 59 56 49 43 48 56 60 48 38 38 38 39 37 33 33 34 21 14 15 17 15 17 28 36 39 38 37 35 34 32 30
70 65 59 52 49 50 51 59 58 54 51 54 46 40 36 37 38 28 21 19 18 17 19 25 36 41 40 38 34 29 26 22 20
70 63 60 52 54 53 46 55 58 58 56 54 51 48 46 40 32 24 23 22 20 19 21 27 35 38 37 35 34 32 30 27 24
68 62 54 54 54 37 34 44 51 54 55 50 43 39 34 28 26 26 23 20 20 23 30 37 38 36 32 30 28 26 25 25 24
66 59 55 51 29 26 40 43 44 43 42 36 34 31 29 28 26 22 19 22 31 40 39 36 34 33 34 36 37 38 37 36 35
64 56 52 33 23 26 31 31 31 31 32 32 28 26 22 19 18 25 35 41 41 40 38 40 48 50 47 42 39 38 37 36 35
58 54 42 36 41 44 40 33 32 29 27 24 19 14 14 21 37 41 42 42 42 48 54 53 45 41 41 42 42 41 40 39 37
54 51 48 50 47 42 31 27 25 21 18 15 13 26 41 45 46 48 57 59 59 53 45 44 46 48 48 46 42 38 34 31 27
52 53 52 45 32 26 25 21 21 20 17 16 25 33 44 50 60 63 63 56 48 50 54 53 48 41 34 28 22 18 14 11 10
54 50 36 27 25 24 22 23 20 20 24 29 39 47 45 46 42 60 57 54 56 57 49 33 22 17 13 12 12 12 12 10 9
44 29 24 25 24 24 23 23 21 30 40 51 56 64 67 63 54 47 54 61 48 31 20 16 15 15 14 14 12 10 9 9 8

GFSFLT1_500_rhum_045.txt.gz
RH
24 28 29 26 23 18 14 10 8 8 8 8 10 12 14 14 14 15 15 15 15 15 14 10 11 12 13 15 14 10 9 9 10
28 29 29 30 29 30 30 29 28 28 27 26 23 18 14 11 10 10 9 9 9 9 10 10 11 13 15 16 17 17 18 18 18
29 30 31 30 32 34 34 34 32 30 30 31 33 32 31 31 32 31 30 29 29 28 28 26 26 24 24 25 26 26 27 28 29
40 40 39 39 41 38 38 36 35 36 36 37 40 41 40 42 42 41 41 39 38 37 36 34 32 30 30 29 29 28 27 26 25
42 41 38 37 36 35 35 35 36 36 37 38 40 42 43 43 41 39 37 36 34 31 30 28 27 25 23 20 20 21 22 20 18
44 42 42 42 42 42 42 41 42 44 45 43 38 37 38 37 36 34 33 33 34 34 34 34 33 32 31 29 27 22 15 12 10
50 45 46 44 44 44 43 44 43 42 42 41 42 45 41 36 35 36 37 37 37 36 36 23 11 9 7 7 9 11 12 11 10
61 50 49 48 48 49 51 49 45 41 40 38 36 36 36 41 39 35 32 30 28 30 28 17 20 23 24 18 9 7 9 13 16
61 63 56 55 56 58 54 47 44 50 52 47 41 34 37 39 42 41 38 32 32 31 24 23 27 28 25 23 19 16 18 23 31
58 62 68 66 63 61 52 49 50 49 50 48 48 47 45 46 43 41 39 36 37 32 27 27 26 23 21 20 21 25 30 35 38
54 53 64 65 64 57 52 52 54 43 52 55 56 56 55 53 51 48 43 35 28 26 27 27 24 23 22 23 26 27 32 36 36
53 53 64 68 62 58 53 57 46 31 37 48 49 50 51 49 44 39 32 30 29 28 25 23 23 24 28 32 36 36 34 32 30
55 60 68 68 63 57 56 50 23 28 38 39 39 37 35 34 33 31 29 27 25 23 22 25 34 41 39 37 36 34 35 35 35
71 68 71 70 62 58 53 28 22 24 30 36 36 33 31 29 25 22 18 16 18 23 32 40 41 41 41 42 44 48 50 50 47
85 82 78 71 62 56 44 37 39 38 36 33 30 28 23 19 17 17 20 30 39 40 42 44 46 46 47 49 49 48 44 42 43
89 92 83 72 60 52 49 49 46 34 28 27 24 21 21 18 19 22 28 36 42 46 47 52 52 52 48 46 47 48 48 48 46
89 90 77 64 54 52 49 39 31 25 25 24 23 23 24 23 31 41 46 52 57 59 59 60 57 52 52 53 53 51 46 40 35
84 81 65 55 51 50 38 26 24 25 25 24 24 24 28 30 46 55 63 63 67 66 59 58 59 60 57 50 41 33 26 20 16
75 74 60 50 46 36 25 25 26 26 25 25 26 30 32 34 36 63 71 68 62 59 64 65 56 46 39 33 26 20 17 17 16
72 65 52 43 34 26 26 28 27 28 28 30 34 39 42 38 39 50 63 64 68 66 59 41 31 28 25 21 19 19 18 18 17

GFSFLT1_500_rhum_048.txt.gz
RH
17 18 22 23 22 20 18 16 12 9 9 9 10 9 9 9 9 10 11 10 9 9 8 8 8 9 10 11 12 15 16 16 14
23 21 22 24 27 28 28 28 28 30 30 31 30 31 31 31 31 31 32 31 30 29 28 28 27 26 23 19 17 18 21 22 22
30 27 27 26 25 27 27 28 29 31 32 33 34 36 37 39 40 41 40 40 40 39 38 38 36 35 33 31 30 30 29 29 29
41 37 35 36 36 35 34 35 37 37 37 37 37 38 39 41 43 43 43 42 40 38 36 33 31 30 30 28 28 26 24 24 25
49 44 42 40 37 36 35 36 38 40 42 42 42 40 38 38 39 38 37 36 34 33 32 33 33 34 34 34 33 32 31 30 27
58 50 45 42 41 42 43 43 42 42 43 42 42 41 42 44 42 37 36 36 35 35 36 36 37 36 34 19 11 10 8 10 13
56 60 50 45 45 46 46 46 44 45 42 39 38 36 35 38 38 40 41 38 34 32 29 28 27 30 26 19 21 26 26 24 13
61 63 60 52 50 50 51 53 54 50 43 46 50 48 41 43 36 36 36 36 39 38 35 32 30 29 24 24 29 32 31 27 25
73 60 68 65 59 57 58 60 60 51 48 50 48 52 48 46 44 44 41 40 42 40 36 38 38 34 28 29 30 29 26 23 20
73 61 64 64 69 70 66 64 60 53 51 54 43 50 52 53 54 53 50 47 44 42 38 34 31 31 32 31 28 26 23 23 22
68 62 64 58 62 66 68 64 60 54 54 52 33 36 44 47 46 45 42 37 35 34 33 32 31 29 27 24 22 22 24 24 27
69 62 62 61 60 68 72 65 61 56 55 35 24 35 36 36 36 36 35 32 30 27 26 24 21 19 18 18 23 30 38 38 38
80 75 67 64 62 73 75 67 61 57 49 25 24 30 37 39 41 33 28 25 21 18 17 15 13 16 24 32 36 39 40 39 39
81 75 73 76 73 75 78 71 62 57 46 37 45 47 43 35 28 25 23 23 20 19 18 19 24 30 36 39 41 44 47 49 49
88 73 87 93 88 87 81 72 65 54 49 48 50 39 29 26 24 23 23 23 22 22 26 30 34 38 37 40 43 42 39 42 44
90 77 81 92 99 93 84 74 61 51 46 42 39 27 26 25 24 24 25 26 27 28 30 32 33 32 32 34 38 45 49 49 49
92 85 86 83 96 94 76 64 54 48 42 34 25 26 27 26 26 28 30 31 36 37 37 35 35 38 45 50 51 52 52 52 52
95 90 92 78 86 86 71 59 49 45 31 25 27 28 27 29 34 35 34 38 40 40 47 57 57 55 55 56 56 54 52 50 47
97 92 96 86 73 75 68 54 43 33 26 28 29 29 31 33 34 44 43 45 56 66 65 64 65 63 59 56 54 50 45 40 36
100 97 92 90 62 66 55 39 34 26 30 31 32 36 37 36 36 33 59 71 75 70 68 66 64 59 53 46 40 38 36 31 28

GFSFLT1_500_rhum_051.txt.gz
RH
20 19 20 22 22 19 19 17 16 16 13 11 12 14 17 20 20 20 18 16 14 16 18 19 20 21 21 18 15 11 11 13 15
24 24 22 20 23 26 27 26 26 26 29 30 31 31 29 29 30 31 33 32 33 34 34 35 35 35 34 32 30 29 29 27 24
29 27 25 24 26 25 23 24 24 26 28 28 28 29 32 34 36 39 39 38 40 40 40 40 40 39 37 34 33 32 30 30 30
41 40 40 36 32 32 32 33 33 34 35 35 36 37 37 37 38 39 40 41 41 40 38 36 33 32 33 33 34 34 33 32 31
54 50 49 44 41 39 37 36 36 36 38 39 43 42 42 42 43 42 38 37 37 36 34 34 34 35 36 36 36 36 31 16 13
68 58 54 49 45 44 43 43 43 44 42 42 42 40 37 35 33 36 40 43 42 38 36 35 35 34 31 27 26 27 24 18 22
74 77 62 60 50 47 47 47 46 44 46 49 47 40 46 48 38 35 36 36 36 39 40 39 36 34 33 30 29 28 24 22 27
56 86 80 65 62 54 51 50 48 49 54 56 51 47 50 48 48 47 43 36 30 32 35 37 39 38 34 34 38 35 29 29 30
39 79 93 70 71 68 62 57 55 57 61 60 55 50 53 45 48 52 52 51 49 48 46 44 42 40 38 35 33 32 33 33 30
30 59 91 82 67 72 71 71 68 64 62 60 56 53 54 40 37 46 44 42 40 39 38 36 35 33 32 30 28 26 23 20 16
36 47 83 78 67 64 65 65 64 65 64 62 59 56 53 25 34 39 37 39 42 40 34 27 24 22 19 17 17 16 14 12 12
48 48 80 74 64 64 65 62 63 67 69 63 60 57 42 26 28 36 43 45 45 33 26 24 24 23 18 17 16 15 16 19 22
62 85 66 82 71 63 60 62 62 72 76 69 62 57 46 38 43 48 47 37 27 26 25 25 22 20 19 19 20 22 25 28 30
39 90 91 82 80 77 76 72 73 75 75 73 65 57 51 48 46 44 35 28 27 25 23 23 23 24 24 26 28 31 34 37 40
43 92 98 80 88 82 87 93 94 90 83 76 68 57 52 48 41 33 29 27 26 24 25 26 27 28 30 31 31 30 29 29 29
54 40 57 88 97 81 82 94 97 98 93 74 64 54 49 44 34 30 29 28 26 28 29 28 29 31 32 28 26 29 36 43 46
80 89 96 96 96 78 86 84 92 96 91 81 64 51 48 32 28 29 30 28 32 31 32 33 32 27 26 30 40 47 49 48 48
64 73 90 97 96 93 95 91 82 83 75 67 50 48 39 31 31 31 31 34 34 34 33 31 31 37 44 50 52 50 49 49 49
57 64 73 85 98 97 96 96 90 67 65 52 36 35 34 33 32 35 36 36 35 32 38 55 62 60 57 54 49 46 48 49 51
61 71 76 82 91 97 97 95 78 57 49 33 31 35 34 33 36 38 38 37 40 47 58 62 58 54 49 50 52 52 50 48 44

GFSFLT1_500_rhum_054.txt.gz
RH
12 15 16 17 17 18 19 18 18 16 16 17 17 16 18 23 25 26 25 27 26 26 27 28 29 29 30 30 30 29 28 28 25
14 19 22 22 19 20 24 27 28 27 25 24 26 28 28 27 25 26 26 27 26 30 34 36 38 39 38 37 37 38 37 36 34
19 24 28 29 27 26 27 27 25 25 23 23 24 24 25 26 29 32 33 35 37 38 42 42 42 41 40 37 35 33 32 32 31
20 23 37 40 38 37 31 31 30 32 33 32 33 35 35 36 37 39 40 39 38 38 39 39 38 36 34 33 34 35 36 36 35
20 25 41 48 46 45 40 39 38 37 36 36 37 40 41 40 40 37 35 36 39 44 40 37 37 36 36 36 37 36 35 32 31
22 32 54 60 54 51 45 42 41 41 43 44 43 41 41 41 38 40 43 28 25 38 42 44 42 39 36 34 32 31 31 28 26
24 26 42 72 66 61 53 48 46 46 46 45 44 45 46 45 46 48 46 38 38 32 34 36 37 38 39 39 38 37 33 30 33
28 28 31 56 82 70 64 57 51 49 49 49 50 52 52 49 49 52 46 46 48 50 49 46 42 37 36 37 39 38 38 36 34
31 29 29 36 68 90 70 68 64 60 58 56 58 58 54 51 49 53 47 41 48 48 44 41 40 39 38 37 35 33 32 30 28
33 31 31 33 49 86 84 69 71 72 70 69 66 61 58 58 50 55 36 34 42 39 40 43 45 39 31 26 24 23 20 17 16
35 34 31 38 40 59 83 76 65 65 64 61 60 58 65 64 55 55 31 27 33 42 47 49 38 28 26 26 25 23 19 18 18
37 36 31 35 58 61 74 71 62 62 61 56 56 62 68 66 62 54 43 44 48 51 49 34 29 27 25 22 20 21 21 20 21
24 24 26 29 93 96 72 74 68 58 57 59 61 67 72 71 66 58 51 51 49 48 42 32 30 28 23 23 24 24 24 25 26
36 21 19 22 28 79 99 73 75 71 63 64 74 75 82 78 70 62 54 53 51 42 32 31 30 26 26 27 26 26 28 30 30
46 43 36 34 38 65 84 81 90 80 74 80 88 91 87 84 70 64 56 51 45 36 32 31 28 29 29 28 29 30 29 26 24
57 56 55 55 61 75 71 66 97 94 79 80 84 91 96 83 75 66 54 50 39 34 33 30 30 29 29 29 29 28 28 34 40
64 59 64 71 78 95 94 97 96 96 86 81 81 83 73 73 59 48 48 47 36 34 34 34 32 30 31 32 33 38 45 49 48
67 68 67 69 78 81 82 91 95 97 96 96 91 84 66 62 48 36 42 37 35 37 37 36 34 34 35 38 45 48 45 38 33
67 69 64 61 66 63 67 81 90 91 97 97 94 86 57 47 32 39 39 37 43 42 40 39 41 42 49 54 52 44 37 47 49
54 70 67 60 62 65 73 85 88 90 86 81 62 52 40 32 43 40 41 46 46 42 41 46 53 58 56 48 40 42 44 45 41

GFSFLT1_500_rhum_057.txt.gz
RH
8 9 9 10 11 12 13 16 18 17 17 16 16 18 18 17 17 16 21 24 25 25 25 25 26 28 29 30 30 30 30 32 33
9 10 10 12 15 17 17 17 20 22 24 24 24 23 23 23 23 19 22 24 26 29 30 31 33 34 32 35 36 37 38 38 37
9 10 12 13 16 21 23 22 23 24 24 24 24 22 22 24 26 30 34 35 36 37 36 37 39 41 42 42 40 38 35 34 34
9 9 12 16 18 27 27 32 30 29 28 29 30 30 32 35 36 38 40 40 37 36 37 40 39 38 38 37 36 34 35 35 36
14 14 16 19 21 36 36 41 40 40 38 36 36 36 39 42 41 40 38 34 37 34 23 22 36 44 41 38 36 37 37 36 31
19 20 21 23 29 42 46 49 46 44 42 42 42 44 44 44 44 43 41 42 47 44 34 30 24 35 41 43 42 41 39 37 36
24 26 26 27 33 45 60 54 54 50 47 48 47 47 47 49 50 46 46 42 48 48 43 45 45 43 39 34 32 35 34 35 35
26 27 28 30 29 30 48 64 64 62 55 52 51 50 51 55 60 54 48 46 49 49 44 48 48 46 43 42 40 39 38 38 36
31 32 31 32 30 29 32 51 72 72 67 65 61 61 60 62 64 58 54 54 52 50 34 44 46 41 42 47 46 37 30 27 25
33 33 33 31 30 27 31 35 45 77 80 66 63 66 61 68 63 62 65 60 57 46 25 35 36 43 48 47 31 28 26 26 25
38 38 37 35 33 29 28 37 42 52 74 74 65 59 56 56 55 61 67 65 60 50 39 42 49 52 49 37 32 30 26 21 20
32 33 30 29 27 25 26 27 84 63 66 70 61 58 59 56 59 60 68 70 66 60 52 53 53 52 45 36 33 32 24 22 23
41 39 36 37 30 21 20 42 83 92 82 65 70 66 62 54 56 63 70 74 72 66 57 55 55 49 40 38 35 29 25 25 23
49 49 49 46 37 40 38 32 32 54 86 84 77 74 77 73 68 81 86 83 77 70 63 65 60 50 40 37 32 28 28 27 26
54 53 60 66 54 50 51 55 63 65 80 81 85 90 87 77 78 80 87 87 78 68 74 70 62 47 37 32 31 31 29 27 29
59 59 59 59 69 62 67 72 80 89 94 92 93 87 96 86 82 75 75 72 63 52 44 48 49 39 34 34 34 32 31 32 32
33 47 63 79 70 67 73 83 78 72 79 88 96 98 97 96 95 94 81 61 51 37 38 44 39 36 37 37 35 34 36 37 42
37 40 57 56 55 66 70 69 64 58 66 77 88 90 99 96 87 90 86 49 35 36 44 40 38 41 39 37 36 38 45 50 45
51 46 36 39 51 63 71 66 77 74 72 96 95 90 80 65 56 46 36 37 51 46 42 49 48 43 40 41 47 49 42 34 36
63 41 46 42 50 67 72 80 78 79 93 98 96 86 48 41 37 38 48 55 41 43 56 53 45 42 47 48 37 34 43 46 45

GFSFLT1_500_rhum_060.txt.gz
RH
8 8 8 8 9 10 10 10 10 12 15 16 17 17 18 21 22 23 24 26 25 22 20 20 25 26 26 26 30 33 32 32 33
6 7 7 7 8 9 10 12 14 15 15 18 21 23 25 22 23 26 24 24 27 28 27 31 34 34 34 34 35 39 40 38 39
8 8 8 8 8 10 10 12 16 17 19 21 22 24 26 25 26 31 35 37 36 36 37 37 37 39 39 38 39 40 39 38 37
13 10 9 10 10 12 16 17 23 21 26 26 28 33 35 34 36 39 40 41 40 37 32 29 25 22 28 42 40 38 38 37 36
15 14 14 14 13 16 19 18 32 33 37 37 39 38 38 39 41 43 43 43 43 38 38 40 32 31 22 23 42 46 43 39 37
17 18 19 20 22 24 26 31 46 45 46 43 43 43 44 46 46 46 47 49 52 46 41 46 44 43 42 36 31 33 37 40 42
20 22 24 25 27 29 28 36 44 52 54 52 50 52 52 50 48 50 52 57 56 51 46 47 48 45 48 46 43 42 41 42 40
21 24 28 30 32 33 31 30 30 38 51 55 59 57 55 54 53 53 55 60 61 58 55 51 49 40 44 49 44 42 45 45 40
25 26 29 31 32 34 32 29 29 30 39 53 69 70 72 74 71 69 68 67 65 60 62 57 55 29 33 45 41 44 49 43 29
29 32 35 36 36 34 32 30 28 28 34 36 49 74 80 72 68 66 59 57 54 54 65 63 60 44 29 32 45 51 47 36 32
30 32 36 39 39 37 32 30 29 29 32 63 57 50 68 68 62 60 59 59 54 51 56 65 64 58 51 51 53 52 48 39 35
36 34 32 32 31 32 31 28 22 22 24 73 85 75 67 72 71 71 66 62 59 56 57 59 65 66 58 56 54 52 46 43 39
50 48 47 45 48 50 47 40 37 33 28 30 39 56 81 81 77 75 76 78 81 78 78 80 78 73 68 62 63 60 53 43 36
55 53 52 51 50 51 56 56 50 52 55 61 68 70 81 85 85 90 86 85 85 86 82 82 83 76 71 71 74 66 46 38 33
39 48 53 54 55 54 56 58 67 65 68 75 78 84 84 92 95 82 90 92 92 89 83 75 74 64 49 45 48 46 39 35 34
28 28 28 33 43 54 59 76 71 70 75 76 74 73 73 78 82 98 98 97 97 99 98 76 59 50 37 38 45 40 37 38 37
39 34 32 28 31 46 62 63 59 61 72 63 58 64 74 70 87 90 96 98 82 81 94 86 55 42 42 50 40 40 44 42 38
62 58 43 41 52 45 55 46 49 63 68 66 75 73 79 99 96 93 89 81 63 48 44 39 47 55 44 43 48 47 43 40 40
68 68 68 70 77 61 62 52 49 63 70 79 78 78 78 86 82 93 49 44 43 46 48 52 46 44 51 56 51 46 48 49 40
83 81 80 86 77 65 44 44 48 59 67 72 74 67 59 45 39 42 50 64 66 55 51 51 52 57 57 50 48 51 46 33 41

GFSFLT1_500_rhum_063.txt.gz
RH
9 8 8 7 8 8 8 9 10 10 11 14 15 16 17 17 18 21 24 24 24 24 23 24 27 27 26 25 25 26 30 32 33
15 10 9 7 8 9 8 9 12 12 14 17 19 19 20 23 24 26 25 25 26 31 34 36 35 32 31 32 34 35 38 39 39
22 19 15 11 10 10 10 10 13 14 15 22 23 24 24 25 26 27 30 34 37 39 38 38 35 28 25 23 26 39 40 39 39
19 18 16 15 14 14 14 14 18 19 23 29 30 33 31 33 37 38 39 44 44 44 42 39 33 33 30 29 24 20 40 42 39
17 18 18 16 16 17 16 17 20 21 28 39 41 43 42 41 42 45 46 47 47 45 44 45 41 41 44 41 39 34 27 31 44
19 18 19 21 21 22 23 24 24 28 35 45 48 48 47 47 49 52 52 52 51 50 54 54 49 48 49 48 45 47 45 40 37
22 22 20 21 24 25 27 29 28 27 33 44 58 59 54 53 54 57 57 56 55 54 59 60 53 54 51 50 43 46 50 44 41
26 25 24 24 26 31 33 32 31 29 29 30 36 49 68 68 60 57 58 61 65 67 66 68 61 53 55 53 40 33 47 46 43
28 29 28 27 30 34 35 34 33 31 30 30 31 34 40 56 71 72 69 70 72 71 63 60 55 51 59 56 53 28 35 39 44
34 34 32 30 32 35 36 36 36 35 33 33 31 35 49 49 54 67 72 71 64 63 61 60 57 52 54 59 60 51 43 46 51
38 38 35 33 34 37 37 35 33 30 27 24 23 26 40 80 78 68 64 67 65 63 62 58 57 56 56 62 66 64 56 53 48
37 43 47 43 42 37 39 42 42 42 37 34 24 26 29 28 36 64 81 68 67 66 69 69 70 74 76 75 75 71 65 57 55
28 40 47 51 50 51 51 49 48 48 52 45 45 51 54 62 66 67 65 67 75 76 80 80 78 84 85 84 84 81 75 72 72
19 30 37 46 52 54 53 53 54 57 56 59 61 62 66 72 76 86 85 90 90 79 71 86 83 82 88 81 80 82 70 61 58
18 22 24 31 40 43 41 43 52 56 53 62 66 64 64 65 66 67 68 75 78 94 98 96 85 78 80 90 74 64 56 42 39
46 24 25 35 30 26 21 24 32 44 54 52 46 48 61 58 55 60 67 70 73 82 78 87 89 75 68 88 91 64 44 39 50
42 57 44 42 41 37 32 37 37 38 46 39 49 56 58 60 62 62 68 96 94 93 90 82 74 60 53 52 47 46 56 50 42
94 86 76 76 62 63 56 58 74 63 56 51 56 50 55 65 68 63 67 68 66 57 69 46 45 50 49 48 51 48 46 47 47
78 90 92 93 82 78 80 95 91 82 60 51 56 49 61 73 71 62 54 54 52 50 57 71 77 77 77 75 67 58 56 57 54
63 69 89 95 95 96 98 96 97 95 62 46 50 38 52 62 64 60 56 66 72 74 76 74 59 64 68 62 59 61 62 55 55

GFSFLT1_500_rhum_066.txt.gz
RH
16 15 13 10 8 7 7 8 9 11 13 14 15 15 16 16 17 19 20 22 23 22 22 23 26 30 32 34 34 33 34 34 34
15 18 20 18 14 11 10 10 10 10 11 13 12 15 17 18 19 20 21 23 23 24 31 35 37 38 36 32 27 24 24 32 38
14 15 17 18 17 16 14 12 13 13 14 15 16 18 21 21 22 24 25 28 32 36 39 41 42 40 36 30 34 28 24 21 35
16 16 17 18 17 16 15 15 16 17 18 21 20 26 29 32 33 34 37 38 42 44 46 46 46 44 42 38 40 41 37 33 25
17 17 16 16 17 18 19 19 20 22 24 26 30 38 39 39 41 41 43 46 49 50 50 52 51 50 50 44 41 44 46 45 41
18 17 18 18 18 18 20 23 24 24 25 26 27 33 44 50 50 49 49 51 52 54 57 55 55 57 61 54 49 46 50 46 48
17 17 19 21 21 20 21 24 27 29 29 29 28 28 31 41 51 54 55 57 57 53 56 57 59 63 67 66 54 51 51 40 39
18 18 23 25 27 26 26 27 31 31 31 30 30 29 28 29 34 44 61 66 66 63 62 61 67 69 62 57 54 55 57 53 29
19 22 24 30 30 29 28 29 32 33 33 32 32 31 30 28 28 35 36 43 63 69 70 66 62 58 56 57 54 54 61 60 52
18 24 28 33 34 34 33 34 36 37 37 33 30 28 26 25 25 26 42 61 58 59 63 60 57 56 56 56 55 53 58 63 65
14 23 29 32 36 38 36 33 32 32 34 36 37 37 34 29 29 30 33 28 33 65 71 58 56 60 65 67 72 72 72 71 71
10 13 18 25 37 42 45 45 43 45 47 47 47 48 47 44 42 42 46 53 58 58 57 58 64 69 73 77 77 85 87 84 83
11 10 11 19 30 36 42 46 49 50 50 48 50 53 54 56 55 55 56 58 61 70 75 74 76 83 77 83 83 78 77 80 84
17 11 12 14 20 23 30 35 41 45 46 43 40 46 50 52 57 56 59 64 66 68 68 70 73 70 74 76 83 77 71 71 76
28 17 15 19 20 18 20 31 34 27 21 22 30 40 43 35 39 48 58 56 55 53 54 72 75 73 71 70 72 76 71 67 81
33 32 29 48 50 26 24 34 30 24 25 28 31 38 38 47 53 50 52 55 58 58 61 67 75 69 73 66 65 70 62 55 53
80 75 66 57 53 53 56 55 48 54 45 38 54 53 58 53 52 46 52 56 58 56 52 52 50 43 47 57 55 60 61 55 50
88 88 86 85 82 87 89 88 87 79 85 87 67 76 63 54 46 42 43 54 60 58 50 46 48 57 65 71 70 67 66 70 70
69 70 70 67 71 80 81 89 96 96 97 96 96 88 83 53 43 38 40 46 49 54 54 55 58 60 65 63 60 63 64 61 58
43 56 71 62 63 76 76 78 90 97 97 98 98 96 81 59 52 33 37 45 43 42 47 48 65 60 62 64 66 67 66 64 62

GFSFLT1_500_rhum_069.txt.gz
RH
13 14 15 15 14 13 12 9 8 8 7 7 8 9 10 10 13 14 16 17 20 22 22 22 22 23 28 32 31 28 25 24 24
12 12 13 12 14 16 16 15 13 12 11 11 11 12 11 11 14 15 16 17 21 23 23 26 32 34 36 36 34 31 32 26 22
10 11 12 12 14 15 16 15 14 14 15 14 15 15 14 16 20 19 21 22 24 26 31 36 40 42 42 42 41 37 36 37 34
12 13 13 14 14 16 17 17 17 17 17 19 21 20 19 24 28 29 32 36 36 38 41 45 47 48 48 49 48 48 41 42 44
13 13 13 14 14 16 16 16 18 18 20 21 22 22 22 24 29 33 37 41 42 45 48 49 51 53 53 55 57 58 49 44 45
12 13 13 13 13 15 16 16 16 18 21 22 24 24 26 27 32 37 41 42 44 51 54 57 58 57 56 56 58 62 61 49 47
12 13 12 12 12 14 17 19 19 21 22 22 22 25 26 26 26 28 33 40 42 55 55 59 60 59 61 60 63 65 60 52 47
15 12 14 12 12 13 16 19 23 23 25 27 27 27 28 28 28 28 27 29 32 32 40 64 72 69 67 67 64 56 53 49 46
8 9 9 11 14 18 22 24 26 27 28 29 28 28 28 27 26 25 24 24 26 35 48 48 46 51 62 59 53 51 51 50 49
9 8 8 10 12 17 26 26 29 30 30 30 30 29 30 31 34 34 30 29 29 30 29 32 51 67 57 54 56 60 58 54 52
9 8 9 8 9 12 17 25 31 36 37 37 39 41 42 41 40 39 39 41 40 43 48 52 56 58 63 67 69 72 72 72 70
20 15 12 9 7 8 11 17 22 30 40 40 39 40 40 40 39 40 41 43 50 51 53 59 66 75 79 76 71 79 80 82 76
33 25 16 11 8 9 9 13 16 20 23 23 24 24 24 26 29 37 40 44 48 52 56 56 59 63 69 72 71 79 80 81 81
60 40 22 18 14 11 12 13 14 14 19 21 18 15 16 21 30 31 30 38 40 41 53 51 50 52 52 66 76 72 73 72 70
67 64 38 27 26 16 18 30 31 20 21 25 23 21 23 26 26 33 41 42 34 35 39 45 48 48 52 54 53 55 61 61 57
68 67 62 48 37 41 40 41 45 51 46 46 46 43 45 37 42 47 48 43 38 35 39 42 47 47 44 40 42 44 48 54 58
73 78 79 82 77 77 81 73 75 83 79 78 82 72 75 85 67 62 58 49 40 31 32 36 36 38 40 43 44 45 49 54 56
49 70 68 68 76 74 70 76 76 71 72 73 85 98 95 98 94 78 76 59 42 34 28 35 37 33 33 42 47 54 52 49 54
30 54 50 55 57 59 62 64 69 63 83 78 86 89 91 95 98 97 90 72 55 44 32 32 37 36 30 29 32 52 47 50 50
23 29 24 27 33 42 45 68 79 78 76 75 82 81 78 86 97 97 98 96 92 60 33 26 38 42 41 38 42 42 49 58 61

GFSFLT1_500_rhum_075.txt.gz
RH
12 12 12 12 12 13 12 12 13 13 13 13 12 12 12 12 13 13 13 13 13 14 15 17 18 20 22 25 30 34 34 35 35
9 8 7 7 6 6 7 8 11 12 14 14 14 14 14 14 16 16 16 17 18 17 17 20 24 26 28 34 39 40 40 40 43
4 4 4 4 4 5 5 6 8 11 13 15 16 17 17 17 18 18 18 20 21 22 22 26 31 34 38 43 46 48 48 47 48
4 4 4 4 4 5 5 5 6 8 9 10 11 11 12 14 14 16 19 22 23 23 26 31 37 41 44 47 50 51 53 53 52
4 4 4 5 4 4 5 5 6 5 6 6 7 7 8 11 13 14 18 20 23 24 24 25 32 42 48 48 48 54 57 58 58
5 4 4 4 5 6 7 6 6 5 5 6 7 8 10 13 15 16 19 23 24 25 25 24 25 28 33 37 43 53 58 61 66
7 5 5 8 8 6 5 5 6 6 7 8 9 10 13 16 18 20 20 23 24 24 23 23 23 23 24 31 38 42 42 46 53
5 6 10 8 6 6 7 7 7 7 7 8 9 11 14 16 18 22 21 21 26 27 29 29 28 27 26 26 28 31 36 49 52
6 10 8 5 8 8 7 8 8 7 6 6 8 10 12 12 18 21 23 24 21 25 24 26 28 34 34 35 37 40 45 48 57
6 10 6 9 10 10 11 12 11 7 6 6 6 7 8 12 12 15 12 12 10 14 17 19 22 27 28 31 34 40 46 55 62
6 9 8 13 15 19 21 18 13 8 7 7 7 7 8 11 11 10 9 10 16 16 13 19 21 21 25 29 32 39 46 48 51
14 8 10 19 24 29 34 28 18 11 10 10 11 11 10 11 13 15 14 15 18 19 16 23 27 24 24 25 30 36 39 40 44
29 19 14 20 29 41 51 47 28 17 14 12 16 23 28 23 20 23 25 25 27 32 30 25 27 31 26 24 25 26 25 26 31
66 39 25 32 42 52 58 62 54 32 23 19 19 29 41 54 58 54 60 65 58 60 70 74 45 37 35 30 25 25 25 27 31
64 49 42 42 52 60 61 59 62 58 42 33 33 50 54 58 66 64 64 72 73 73 82 73 76 58 50 42 34 27 25 24 28
49 50 52 61 61 56 46 52 70 72 71 62 65 73 73 70 68 66 67 68 70 75 71 69 72 73 65 65 50 39 32 26 27
14 17 47 63 63 53 44 48 46 70 76 75 71 69 62 66 63 61 61 68 68 70 70 59 59 70 79 81 79 66 62 54 38
11 11 12 32 52 61 49 46 42 46 67 76 62 56 59 60 66 65 65 60 59 58 66 64 62 61 72 100 91 82 75 66 64
11 10 12 13 14 17 34 37 63 66 75 83 71 52 39 31 40 51 53 54 55 57 56 61 68 67 63 86 80 92 94 80 73
18 12 42 32 42 47 46 36 47 74 67 88 86 59 39 29 36 33 44 51 60 66 68 64 68 73 76 76 70 81 89 90 87

GFSFLT1_500_rhum_078.txt.gz
RH
13 12 12 12 10 9 8 7 7 8 9 10 11 13 13 14 14 14 17 17 17 17 18 19 19 20 21 24 28 32 34 38 39
8 6 5 4 4 3 3 3 3 4 6 7 8 11 14 16 17 17 17 17 16 17 19 20 23 26 29 33 36 39 43 44 44
3 3 3 3 3 3 3 3 4 4 4 6 7 8 9 11 11 11 11 12 13 14 17 20 22 27 32 38 43 46 48 50 51
3 3 3 3 3 3 3 4 4 4 5 5 5 5 5 6 7 8 9 10 10 13 16 19 22 23 26 33 42 49 50 51 55
3 3 4 4 3 3 4 6 6 6 5 5 4 5 5 5 6 8 9 10 11 13 16 20 20 21 22 24 26 29 32 37 43
5 9 8 5 4 6 6 6 5 5 5 5 6 6 6 6 6 7 8 9 12 14 16 17 20 21 21 22 22 23 24 28 33
10 9 6 4 6 7 5 5 6 6 6 6 6 5 5 5 6 6 8 10 12 14 17 18 21 24 24 26 26 26 27 29 35
8 5 4 5 7 5 6 7 8 9 9 7 5 5 4 5 6 6 8 8 10 10 11 12 14 15 19 20 29 29 31 30 37
6 5 4 6 6 6 10 11 14 14 12 7 6 5 6 6 8 8 8 6 6 6 9 14 14 13 14 15 17 19 24 26 34
6 9 5 7 6 9 13 16 20 21 15 9 8 7 8 8 8 10 10 8 8 9 13 12 11 20 22 18 17 20 23 26 30
9 21 19 7 7 11 17 23 27 31 21 12 10 10 12 13 11 12 12 14 13 14 16 16 15 16 22 22 20 19 18 20 25
11 22 24 20 8 12 20 28 40 46 38 22 14 13 14 20 30 20 22 22 26 30 26 30 33 31 24 26 29 24 21 20 20
12 19 30 29 24 16 22 32 45 51 57 47 26 20 16 20 30 45 52 56 54 65 65 56 57 60 62 46 34 32 29 25 22
12 28 46 63 54 34 31 38 49 56 56 56 55 36 29 26 35 45 53 66 68 64 67 69 69 64 60 66 58 47 45 40 33
15 18 31 45 60 52 44 45 55 60 48 51 58 61 50 42 55 67 60 49 53 72 73 63 64 66 63 62 69 71 62 62 56
23 21 17 18 37 45 49 62 66 60 48 44 44 60 66 71 74 73 66 63 54 52 59 61 60 59 68 63 63 72 80 86 90
10 12 13 12 10 10 12 42 64 72 64 52 43 34 48 85 83 75 69 60 64 67 58 55 46 46 53 66 73 71 61 76 83
20 16 12 14 10 11 11 13 20 44 61 54 46 48 63 79 90 82 72 61 51 58 52 39 38 47 54 61 68 66 71 75 83
14 33 30 19 19 20 38 45 28 20 44 47 47 55 61 71 86 93 84 66 36 38 47 42 45 47 51 57 75 82 82 85 84
8 18 20 19 24 28 46 68 76 71 69 77 75 72 70 82 84 90 90 72 58 61 63 67 66 66 69 58 60 78 93 83 92

GFSFLT1_500_rhum_081.txt.gz
RH
14 14 12 10 7 5 4 3 3 3 3 3 3 5 7 8 10 14 15 17 18 16 15 14 12 16 19 23 26 30 33 37 37
9 6 5 3 2 2 2 3 3 3 3 3 4 5 6 6 8 10 9 9 10 10 9 11 11 14 16 22 26 31 35 41 44
4 3 2 2 3 3 3 3 3 3 3 4 5 5 5 4 5 5 5 6 6 8 8 10 12 14 17 18 19 23 29 35 40
2 3 3 3 3 3 3 3 4 5 5 5 4 4 4 4 5 5 6 6 6 7 8 9 11 13 16 18 20 22 24 26 30
3 3 3 5 7 5 3 5 5 5 4 4 5 5 6 5 5 5 5 4 5 5 7 8 10 14 17 19 19 21 23 23 24
3 4 6 9 6 3 4 6 4 4 5 5 5 6 5 4 4 4 5 5 5 5 6 6 8 8 11 16 16 18 20 22 24
3 4 7 6 4 4 5 4 6 6 8 9 9 6 5 4 4 5 5 5 6 5 4 4 6 9 10 10 10 11 17 20 22
4 6 6 4 4 4 5 6 9 12 14 14 10 7 5 6 7 6 6 7 6 6 5 7 10 10 8 9 12 12 12 14 18
4 6 6 5 4 5 5 9 12 15 20 20 13 9 7 8 9 9 8 8 8 9 10 11 11 10 11 18 16 14 13 14 16
6 6 6 12 10 6 6 10 15 21 26 29 21 12 10 9 11 13 14 12 11 12 13 15 17 15 13 12 17 20 16 16 15
6 7 8 12 24 11 8 9 18 24 32 40 39 24 15 13 13 17 24 26 23 21 26 29 31 30 29 27 22 18 24 23 19
7 8 8 12 21 23 20 11 16 25 34 41 45 46 33 21 17 17 26 38 47 49 48 50 52 51 50 50 50 52 38 27 26
7 8 9 14 25 44 46 28 21 24 34 46 46 48 48 42 31 24 22 34 43 53 54 49 51 48 60 67 61 54 57 54 45
12 9 10 13 15 38 50 59 51 41 39 43 50 53 48 50 47 46 37 36 53 50 52 45 49 50 53 59 71 70 62 61 63
20 19 12 13 16 16 27 38 46 46 44 45 55 58 47 44 47 60 64 57 66 71 66 64 50 50 50 54 56 62 71 63 65
26 25 22 16 16 18 16 17 14 12 15 27 49 56 61 55 51 41 51 78 82 82 84 79 68 67 64 56 59 60 60 57 64
24 27 31 23 12 11 10 10 10 11 11 11 13 34 52 76 62 55 59 60 80 95 90 86 87 72 64 53 50 57 58 65 69
32 32 24 24 16 20 33 36 20 21 19 31 39 26 16 25 39 47 53 65 76 88 92 84 76 62 50 51 61 61 71 76 74
24 14 16 24 32 35 23 18 21 23 42 46 78 81 64 55 60 85 79 76 84 94 93 93 80 64 78 91 86 81 97 89 80
8 14 20 19 24 21 16 18 25 21 24 29 39 46 54 78 74 75 83 90 97 95 96 99 97 96 96 91 82 96 99 95 83

GFSFLT1_500_rhum_084.txt.gz
RH
14 14 13 10 6 4 2 2 2 2 2 2 2 3 4 4 4 6 7 8 7 7 6 6 6 7 9 10 13 17 20 21 23
11 8 5 4 2 2 2 2 2 2 2 2 3 4 4 4 4 4 5 5 4 4 4 5 5 6 7 10 12 14 16 17 21
6 4 2 2 2 2 2 3 3 3 3 4 4 4 3 4 4 4 4 4 4 4 4 4 5 6 7 9 11 14 18 17 20
3 2 3 3 3 3 5 5 3 4 4 4 4 4 4 4 4 4 4 4 4 4 4 5 5 5 6 7 10 11 12 16 18
3 3 3 3 4 7 6 4 4 4 4 4 5 4 5 5 5 4 3 4 4 4 5 4 3 3 4 7 8 10 11 12 14
3 3 3 4 6 6 4 3 5 4 5 6 8 9 8 5 5 4 6 5 5 6 5 5 4 6 8 9 8 8 10 11 14
3 3 3 4 6 4 3 4 4 5 8 11 12 12 9 7 5 7 7 7 7 7 7 7 6 8 9 8 8 10 11 11 12
3 4 4 4 5 4 4 5 5 8 12 16 18 16 10 8 7 9 9 10 10 10 9 11 12 13 12 11 10 13 13 12 12
4 4 4 5 5 6 4 5 6 10 14 19 23 25 16 11 10 12 13 14 16 15 12 13 16 19 21 21 17 11 13 16 14
5 5 5 5 5 7 10 6 7 10 16 22 29 36 35 22 15 15 17 19 23 27 24 22 25 29 32 33 31 29 26 17 18
5 5 5 5 5 6 14 21 12 8 15 21 29 36 40 44 35 22 21 21 24 31 38 42 40 41 42 40 42 46 48 44 44
7 6 6 6 6 7 9 16 21 22 15 17 26 36 42 45 50 48 36 28 24 26 33 42 50 53 48 42 41 49 52 52 52
9 9 10 8 7 8 10 20 33 48 42 35 32 33 40 46 49 54 53 54 43 32 29 39 47 53 52 42 45 47 49 58 58
12 17 17 13 10 9 12 13 24 36 46 52 50 44 42 43 54 56 50 52 66 64 48 42 60 66 66 61 54 52 51 48 49
21 19 16 18 23 22 18 18 20 18 18 19 18 19 24 40 62 68 62 55 58 66 82 80 71 78 87 90 76 66 59 54 51
40 29 20 23 27 26 26 14 10 10 10 10 10 10 12 14 21 41 76 84 73 61 54 58 90 97 92 92 88 79 75 72 60
31 28 34 34 30 29 27 25 18 19 24 26 24 15 25 38 41 36 28 25 38 52 53 58 74 83 94 97 93 93 76 62 59
56 29 31 36 31 22 16 17 24 31 26 18 16 18 24 33 43 66 86 82 75 74 84 83 79 87 95 97 97 95 85 68 82
33 39 38 40 26 19 16 21 16 20 16 16 18 25 20 19 22 37 53 42 67 90 98 98 98 100 99 98 95 98 98 98 96
12 20 19 18 16 20 19 12 11 10 12 20 24 26 29 32 33 30 42 57 70 77 90 89 93 94 98 96 97 89 96 94 97

GFSFLT1_500_rhum_087.txt.gz
RH
16 15 15 12 7 4 2 2 2 2 2 2 2 2 3 4 4 4 4 3 4 4 4 4 4 4 4 5 5 6 7 9 12
14 11 7 4 2 2 2 2 2 2 4 3 3 3 4 3 3 3 4 4 4 4 4 3 3 4 4 4 4 5 5 7 11
9 6 3 2 2 2 2 2 4 4 3 3 4 4 3 4 4 4 4 4 3 3 4 4 4 4 3 3 3 5 6 6 8
5 3 2 2 3 3 3 5 6 4 4 4 3 3 4 4 5 6 5 4 5 5 4 5 5 5 4 4 6 7 6 6 7
4 3 2 2 3 3 4 6 4 4 4 4 4 5 7 8 7 6 4 6 6 6 7 8 8 8 7 6 7 7 6 7 8
4 3 3 3 3 4 5 4 3 4 4 4 7 10 11 11 8 6 5 8 8 9 10 10 10 10 10 10 9 8 8 9 10
5 3 3 3 3 4 4 4 3 4 4 8 11 14 16 14 10 6 7 10 10 11 13 13 12 13 15 16 16 15 12 11 12
5 4 3 3 4 4 4 4 3 4 5 10 14 17 19 20 13 10 10 12 13 14 17 18 16 17 19 21 23 24 22 16 13
5 4 4 4 4 4 4 4 4 5 6 10 14 20 25 30 30 20 14 15 16 17 21 26 28 25 24 28 30 31 31 31 30
5 5 4 4 4 4 4 4 8 9 7 8 14 19 26 33 34 36 36 26 21 20 22 26 31 38 39 38 40 40 40 41 42
6 6 6 5 5 5 5 5 6 11 20 17 11 15 21 29 36 36 36 40 42 34 28 23 24 31 40 48 48 46 42 40 43
6 7 7 7 7 7 7 6 6 8 11 19 25 22 21 25 31 38 40 42 47 49 51 45 35 26 31 42 49 55 51 44 46
14 12 10 9 10 12 11 9 9 10 10 17 32 46 53 54 50 46 45 49 53 51 46 48 59 58 42 39 54 63 64 51 51
14 12 12 12 16 17 15 17 17 14 13 15 16 19 21 23 26 31 36 48 65 70 65 55 50 53 73 76 62 70 79 81 69
13 14 16 20 20 19 23 23 24 22 17 11 10 11 12 12 13 13 13 14 16 25 49 73 79 70 57 51 65 90 91 88 86
15 15 18 27 36 24 26 25 27 28 26 23 19 20 24 32 35 26 31 45 57 67 57 40 32 38 45 57 54 68 83 100 97
26 21 24 34 32 33 40 37 30 28 21 16 21 28 30 21 18 23 30 39 37 46 61 86 99 92 88 90 88 82 80 80 82
40 46 45 55 56 22 36 33 34 21 16 19 14 12 13 14 18 23 26 24 30 36 36 44 51 64 96 99 97 93 83 97 100
84 82 74 59 52 41 31 27 16 15 20 13 11 10 10 11 17 25 23 30 43 49 52 63 79 90 93 97 98 97 96 96 97
86 93 87 60 34 22 20 14 12 20 12 12 10 9 9 10 13 15 22 25 19 28 38 47 55 61 78 86 90 94 97 100 97

GFSFLT1_500_rhum_090.txt.gz
RH
16 16 15 12 9 5 3 2 2 2 2 3 4 3 2 3 3 3 3 4 3 3 3 3 3 4 4 5 4 3 4 5 6
16 14 11 7 4 2 2 2 2 2 4 4 3 3 3 3 3 4 4 4 4 3 4 4 4 6 7 7 4 4 5 5 6
14 10 6 4 2 2 2 2 3 4 4 3 3 3 3 3 5 6 6 6 4 5 5 5 8 10 9 8 6 6 6 6 6
10 6 4 3 2 3 3 3 4 4 4 3 3 3 4 6 9 9 7 6 5 8 7 9 11 12 12 11 8 8 8 6 7
10 6 4 2 2 3 3 3 4 4 3 3 3 4 8 11 11 11 8 5 8 10 10 11 13 13 14 15 14 13 11 10 9
8 6 4 3 3 3 3 4 4 3 3 3 4 7 11 13 14 14 11 7 10 12 13 14 16 15 16 18 19 20 21 18 14
8 6 5 3 3 3 3 3 4 3 3 4 5 9 13 16 17 18 14 11 11 14 16 18 21 22 20 20 22 24 26 24 22
9 7 5 4 3 3 4 3 4 4 4 4 5 9 13 17 20 22 23 20 16 16 18 20 22 25 29 31 29 29 31 32 30
8 6 5 4 4 4 4 4 4 4 7 6 6 8 12 16 20 23 24 26 30 29 26 24 24 25 27 29 33 37 38 38 39
8 7 6 5 4 4 4 4 4 4 4 9 14 12 11 13 17 21 28 32 33 32 35 38 38 34 31 30 30 32 36 41 45
9 9 7 6 6 6 6 6 7 6 6 6 8 13 21 24 21 22 29 37 39 39 39 41 44 43 44 45 42 37 36 39 47
11 12 8 6 7 7 8 9 10 10 9 8 8 10 18 30 42 48 48 49 44 42 42 45 53 57 54 46 47 54 57 47 47
14 15 14 13 11 10 11 13 15 13 13 14 14 14 15 17 18 19 19 18 14 12 13 16 21 35 51 60 61 59 56 60 74
15 14 14 14 13 12 14 18 17 19 20 22 22 20 14 13 13 13 13 14 18 22 19 26 32 35 34 35 40 46 68 70 65
16 16 14 13 13 15 20 24 29 23 23 25 28 27 25 20 19 21 27 30 22 21 23 27 32 32 36 49 70 70 66 65 63
20 18 16 15 14 15 26 34 29 30 37 33 30 25 18 21 23 28 27 17 16 18 27 32 26 32 35 35 38 47 48 58 93
23 21 22 24 24 23 26 32 45 37 31 35 35 21 22 18 12 11 11 13 17 22 25 25 33 42 42 41 47 66 82 84 83
27 27 29 34 43 43 50 59 43 34 41 39 22 13 15 13 12 11 11 11 14 17 19 30 22 20 25 30 38 49 50 34 47
68 46 55 63 76 83 84 76 79 60 32 19 14 13 11 10 9 10 11 14 16 19 14 10 14 18 14 12 10 12 13 23 69
81 84 90 95 92 98 96 93 89 61 48 14 12 12 11 10 7 5 9 16 18 13 10 11 12 12 8 6 10 12 11 13 40

GFSFLT1_500_rhum_093.txt.gz
RH
17 16 16 14 11 7 4 2 2 2 2 3 4 3 2 2 2 4 5 5 5 5 4 5 5 6 9 11 9 6 6 6 6
17 16 15 11 7 3 2 2 2 2 3 4 3 2 2 2 4 6 8 8 7 5 5 6 7 9 11 11 10 9 8 8 7
16 15 11 6 3 2 2 2 2 3 3 3 3 2 3 3 7 9 10 9 8 6 9 9 10 11 13 13 13 12 12 12 10
16 13 8 4 3 2 2 2 2 2 3 2 2 3 3 6 10 11 12 11 8 8 12 12 12 14 15 15 16 16 17 17 16
15 12 7 4 3 2 2 2 2 3 3 2 2 3 4 8 11 13 14 13 9 9 13 14 14 17 17 16 17 20 21 21 22
15 11 7 5 4 2 2 2 2 3 3 3 3 3 5 8 11 13 14 16 15 12 12 15 17 18 19 21 21 20 22 24 26
15 12 8 6 4 3 3 3 3 3 3 3 3 4 5 7 11 14 17 17 17 18 18 18 19 21 22 23 23 25 26 27 28
16 13 9 6 4 3 3 3 3 3 3 4 4 5 6 7 11 15 18 20 21 22 22 24 27 29 28 28 28 28 28 30 32
16 13 9 7 5 4 4 4 4 4 4 5 5 7 9 11 13 14 15 16 19 23 28 32 33 32 32 33 36 38 38 36 34
16 12 10 7 6 5 5 4 5 6 7 7 7 7 7 8 10 14 20 22 27 38 40 40 38 37 34 34 42 46 46 46 48
16 13 10 9 8 6 6 6 7 8 9 10 10 9 8 9 10 12 17 22 24 22 21 19 16 13 11 12 16 22 30 42 53
17 14 10 10 10 8 7 7 9 11 12 13 13 14 16 16 16 16 16 15 14 12 12 11 15 17 15 17 25 29 33 36 42
18 15 14 13 13 14 13 11 11 14 16 15 19 20 21 23 23 20 18 18 16 18 21 22 17 14 16 20 24 24 31 42 54
20 17 17 15 14 14 14 13 14 17 18 25 23 23 25 26 26 24 18 17 20 21 19 13 11 13 19 20 20 27 34 36 35
23 20 20 17 15 14 13 14 15 15 24 28 26 36 32 31 26 18 18 16 12 10 11 10 12 16 19 17 21 24 21 31 38
26 23 21 19 17 17 16 15 15 19 26 32 43 29 38 36 25 20 17 13 11 10 10 10 11 13 15 19 10 13 10 9 14
30 25 23 22 21 22 26 27 24 21 26 54 43 37 45 29 17 17 14 12 11 10 9 9 11 16 15 8 10 10 9 7 6
46 42 32 30 29 26 27 33 49 58 60 58 66 61 35 21 15 14 13 11 9 8 8 12 17 14 8 10 11 11 9 6 7
67 69 78 73 58 54 60 83 94 98 100 94 80 62 43 23 11 13 12 9 8 10 13 18 14 9 10 11 12 11 7 8 9
98 96 97 97 87 96 96 96 98 98 100 96 87 60 33 13 15 12 10 7 9 14 20 14 11 10 12 14 13 11 7 11 10

GFSFLT1_500_rhum_096.txt.gz
RH
17 17 17 16 13 8 4 2 2 2 2 3 3 3 2 2 2 5 7 8 8 8 6 7 8 8 10 10 10 9 9 9 9
18 17 16 14 10 5 2 2 2 2 2 2 2 2 2 2 3 6 8 8 8 8 7 10 11 9 11 11 11 11 12 12 12
18 16 15 11 6 3 2 2 2 2 2 2 2 2 2 2 5 7 8 10 10 9 8 11 12 11 11 11 11 11 12 14 17
18 16 13 9 4 3 2 2 2 2 2 2 2 2 2 3 6 8 9 11 12 12 9 10 12 13 14 14 14 14 14 16 19
17 16 13 9 5 3 2 2 2 2 2 2 2 2 3 4 6 9 10 12 12 13 14 13 13 14 15 16 17 18 18 18 21
17 16 14 9 6 4 3 3 2 2 2 2 2 3 3 4 5 8 10 13 15 15 14 16 17 18 20 21 22 23 24 25 26
18 16 14 10 7 4 3 3 3 3 3 3 3 4 4 5 6 7 8 11 13 15 16 19 22 24 26 27 28 28 30 33 34
19 17 15 11 8 5 4 3 3 3 3 4 6 6 6 6 7 8 9 10 12 14 15 17 26 32 35 33 31 31 32 37 42
20 18 15 12 8 6 5 4 4 4 5 6 7 8 8 8 7 7 7 9 11 15 18 21 22 21 18 16 12 11 12 15 19
20 19 17 13 10 8 7 6 5 5 6 8 9 10 10 9 9 10 10 11 12 14 14 15 14 12 12 14 16 14 16 20 24
21 19 18 14 11 9 8 7 6 6 8 10 11 12 12 14 15 15 16 16 16 16 16 14 16 19 20 15 13 15 19 21 19
23 20 18 15 12 12 11 11 10 10 10 12 15 15 17 18 18 20 19 20 22 21 14 15 16 13 11 10 12 17 20 17 21
28 24 22 18 15 14 13 14 14 12 12 15 17 19 23 21 22 26 24 25 21 15 15 13 9 9 9 10 13 14 14 18 24
38 31 26 22 17 16 15 13 13 13 13 16 19 26 25 25 32 26 30 30 23 16 15 12 9 9 8 8 10 14 18 14 10
51 44 37 25 20 19 17 15 14 13 13 14 19 29 29 35 28 34 37 26 16 13 12 10 9 8 7 8 10 15 9 11 12
62 54 47 32 25 21 19 18 17 16 15 17 21 24 36 47 36 43 25 17 14 13 11 10 8 7 8 10 15 11 7 9 11
84 62 50 36 30 24 22 20 21 22 26 28 27 39 58 57 72 52 35 20 16 13 11 9 7 7 9 14 14 7 9 8 7
94 69 53 41 33 27 29 28 27 26 29 33 61 79 90 93 86 68 54 25 14 22 12 8 7 9 13 15 9 8 9 9 10
90 83 66 52 50 52 50 52 54 64 74 86 95 92 99 96 90 64 25 17 16 23 10 8 10 13 16 12 8 9 9 10 12
96 95 97 96 94 89 91 100 90 90 95 96 97 99 96 85 74 48 19 16 17 15 10 11 16 18 13 9 10 11 11 13 13

GFSFLT1_500_rhum_099.txt.gz
RH
12 14 15 16 15 13 8 3 2 2 2 2 2 2 2 2 2 4 5 6 6 7 8 7 10 9 9 9 8 7 7 8 8
16 16 17 16 13 8 4 2 2 2 2 2 2 2 2 2 3 5 5 6 8 8 8 8 10 10 11 10 10 9 9 8 9
17 18 17 15 10 5 3 2 2 2 2 2 2 2 2 2 3 5 6 8 9 9 10 10 10 11 12 12 12 12 12 12 13
18 18 16 13 9 5 3 2 2 2 2 2 2 2 2 2 3 4 6 8 9 10 9 10 11 13 14 15 16 17 17 17 19
19 18 16 14 10 5 3 2 2 2 2 2 2 2 2 3 3 4 5 7 8 10 11 12 13 15 17 19 22 23 24 24 26
19 17 16 14 10 6 4 3 3 2 3 3 3 4 5 4 5 6 6 7 8 8 9 10 12 14 19 23 24 24 22 22 21
19 18 17 15 11 8 5 4 3 3 3 3 5 6 6 6 7 8 7 7 7 8 8 10 11 14 15 15 14 12 11 10 10
20 18 18 16 14 9 7 5 4 4 4 4 6 7 8 8 9 9 9 9 10 11 12 12 13 13 12 11 11 14 14 10 10
21 20 18 16 15 11 8 7 6 5 5 6 7 8 9 10 11 10 12 13 14 15 14 14 16 14 13 14 15 13 8 10 12
23 21 20 18 16 14 11 9 8 6 6 6 8 9 11 12 12 15 15 16 17 16 18 20 16 12 13 10 8 8 8 9 14
25 23 21 20 18 15 13 11 9 8 8 9 10 11 13 14 14 17 17 19 20 22 24 19 14 15 12 9 8 8 8 8 11
32 26 23 21 19 16 14 13 12 12 12 12 12 13 14 14 16 18 19 24 22 27 28 20 16 14 10 9 8 8 7 9 11
42 36 28 24 21 19 16 15 14 14 14 14 13 13 15 15 17 19 21 25 25 34 26 15 15 17 10 9 8 8 7 9 15
44 45 39 32 27 24 20 17 16 14 14 13 13 13 15 17 20 21 25 31 35 36 17 15 20 17 9 9 8 7 9 13 14
47 52 52 47 44 33 24 20 19 17 16 14 14 14 15 18 20 23 41 42 50 34 26 36 26 39 14 8 8 9 10 16 9
49 55 61 59 68 60 36 25 22 20 18 18 17 17 21 24 26 45 54 66 68 45 54 46 18 42 17 8 12 11 13 15 8
46 65 74 72 71 66 47 31 26 23 22 22 25 28 31 39 54 72 81 84 75 67 50 46 19 46 12 8 15 13 15 12 7
43 59 72 79 92 79 55 39 32 27 27 28 32 34 46 80 98 98 96 89 75 65 54 48 23 53 13 10 15 14 14 8 8
94 85 70 75 92 86 73 65 63 54 46 51 57 84 96 96 90 100 95 91 80 71 73 63 36 51 10 12 15 15 12 9 9
97 96 95 96 93 94 95 95 87 85 92 97 92 100 96 100 96 99 95 95 49 64 56 20 44 36 11 12 17 14 10 11 11

GFSFLT1_500_rhum_102.txt.gz
RH
8 10 14 15 15 14 10 4 2 2 2 2 2 2 2 2 2 4 4 4 5 6 7 7 8 8 8 10 10 9 9 10 10
12 14 16 16 15 13 6 2 2 2 2 2 2 2 2 2 3 4 4 5 5 6 7 8 8 8 9 10 11 11 12 13 15
15 17 17 16 15 10 5 2 2 2 2 2 2 2 2 2 3 3 4 4 5 6 7 8 8 9 10 12 13 15 16 18 18
17 18 17 16 14 9 4 2 2 2 2 2 2 2 2 3 4 4 5 5 6 7 8 8 8 9 10 11 13 15 16 15 13
18 18 18 17 14 10 5 3 2 2 2 2 3 3 4 5 6 7 8 8 7 7 7 8 9 10 10 11 11 11 10 10 10
17 18 18 17 14 10 6 4 3 3 2 3 4 5 6 7 8 9 9 9 9 10 12 13 13 12 12 12 11 10 11 12 10
19 19 19 18 15 12 8 5 4 3 3 4 4 6 7 8 10 11 10 11 12 13 15 15 14 14 15 13 11 12 10 7 7
21 20 19 18 16 14 10 8 6 4 5 5 5 7 8 9 10 12 12 14 15 16 17 18 19 19 13 13 13 10 7 7 8
22 21 20 19 18 16 13 10 8 7 6 6 6 7 9 10 12 12 14 15 16 19 18 22 25 19 18 22 14 9 8 9 13
25 23 21 20 19 18 16 14 11 10 9 8 8 9 11 12 13 13 15 15 17 21 21 26 29 18 18 23 13 9 8 12 14
28 26 24 22 21 20 19 17 15 13 12 12 12 12 13 14 14 14 15 17 18 22 23 30 32 15 23 26 10 8 9 11 12
32 31 28 25 24 22 21 19 18 16 14 14 14 14 14 13 14 14 15 17 19 24 29 37 26 14 22 36 24 11 10 10 15
38 38 36 32 28 25 23 21 19 17 16 15 15 14 14 13 14 14 16 19 21 32 38 42 22 31 34 33 40 21 8 17 21
36 40 42 42 39 31 28 25 22 19 17 16 16 15 15 15 15 15 18 20 27 45 53 65 40 51 40 23 39 20 7 21 22
28 33 40 44 48 47 40 34 30 26 22 19 18 17 17 16 17 20 24 27 47 59 75 74 60 54 41 25 42 19 9 12 15
32 27 32 37 42 50 52 50 52 41 30 24 22 20 19 20 24 27 31 45 72 77 79 79 64 56 57 36 50 26 10 19 15
73 62 54 39 43 47 66 64 61 56 44 35 27 24 25 26 30 60 56 76 77 79 86 76 66 59 51 30 48 26 10 19 16
84 94 85 60 41 47 51 71 66 66 57 46 39 32 32 41 48 62 87 90 88 92 83 76 69 61 57 28 46 45 14 18 28
95 95 96 94 88 57 56 83 92 84 89 84 90 85 62 71 83 97 96 92 91 96 89 72 60 64 50 28 48 28 16 33 17
97 95 98 96 96 96 96 96 96 97 97 96 95 96 95 94 91 97 100 97 94 86 80 62 70 64 52 30 41 17 33 37 15

GFSFLT1_500_rhum_105.txt.gz
RH
6 7 10 13 14 14 12 7 2 2 2 2 2 2 2 2 2 3 4 4 4 4 5 6 6 7 7 8 8 9 10 10 11
7 10 12 15 15 14 10 4 2 2 2 2 2 2 2 2 2 3 4 4 5 6 6 6 7 8 8 9 9 10 10 10 10
10 13 14 16 16 14 9 3 2 2 2 2 2 2 2 3 3 4 5 6 7 7 7 7 9 9 9 10 9 11 10 9 10
12 14 16 17 16 14 9 3 2 2 2 2 2 3 3 4 6 7 9 10 9 9 9 11 13 12 11 11 12 12 10 10 10
14 15 18 17 16 14 9 4 3 2 2 2 3 4 6 7 8 10 11 11 12 14 15 16 17 15 13 14 13 14 13 12 8
16 17 18 18 16 14 10 5 4 3 3 3 4 6 7 8 9 11 12 13 15 16 17 18 22 23 20 15 15 20 16 13 8
18 20 19 19 17 15 11 7 5 4 4 4 5 6 7 8 10 12 12 14 16 18 18 19 22 29 23 16 25 24 17 13 10
20 21 20 19 19 17 14 10 7 6 5 6 6 7 8 9 11 12 13 15 16 18 19 21 23 32 29 19 27 30 18 10 10
19 21 21 20 20 18 16 13 10 8 8 7 7 7 9 10 12 13 14 15 16 17 18 23 25 34 31 17 28 34 24 12 16
20 22 23 22 21 20 18 16 14 12 11 11 9 9 9 12 13 14 14 14 16 18 18 25 30 40 32 17 28 39 36 22 21
24 24 25 24 22 21 20 20 18 17 14 13 12 12 12 12 13 14 14 14 16 18 21 31 37 45 30 26 42 38 36 38 14
26 30 30 28 26 24 24 22 21 20 19 17 15 15 15 15 14 13 14 15 17 19 24 37 47 59 41 46 46 37 34 43 12
22 26 32 35 34 31 27 26 24 23 22 20 19 18 18 18 16 15 15 16 19 22 28 48 58 71 55 55 49 48 42 44 17
21 25 29 33 38 39 39 36 32 30 27 26 25 24 23 21 19 17 16 17 23 28 37 58 71 77 70 60 56 48 46 47 22
24 26 26 30 34 38 42 41 44 44 38 36 34 30 29 25 23 21 19 23 29 38 54 70 71 78 70 65 60 48 37 48 22
50 50 44 30 26 29 35 46 48 51 58 55 50 42 33 27 26 26 24 27 53 62 70 71 74 84 78 71 57 50 33 48 46
59 50 55 59 49 38 36 33 42 50 54 65 67 64 47 36 37 33 32 48 56 67 77 78 82 86 79 61 59 54 40 41 33
93 94 88 80 65 73 77 64 49 39 46 61 70 75 82 67 62 56 72 67 72 83 83 80 81 86 69 63 62 60 45 41 35
95 95 95 97 95 96 95 96 95 86 66 55 71 99 94 96 96 92 89 89 88 90 85 85 82 72 59 61 61 58 39 32 26
91 97 95 98 96 97 97 97 98 97 96 97 94 94 94 98 81 99 96 91 87 89 92 90 80 65 64 63 61 53 32 38 48

GFSFLT1_500_rhum_108.txt.gz
RH
7 6 8 10 12 13 13 11 5 2 2 2 2 2 2 2 2 3 4 4 5 6 6 7 9 10 10 10 11 12 13 11 10
7 8 10 11 13 14 13 9 3 2 2 2 2 2 2 2 3 4 6 8 8 8 8 10 14 16 15 12 12 14 15 14 13
8 10 11 13 13 14 13 7 2 2 2 2 2 2 2 3 4 6 10 12 12 12 13 16 20 23 20 14 13 14 17 20 17
10 14 14 15 16 15 12 6 3 2 2 2 2 2 3 5 7 9 12 13 15 16 17 19 21 27 25 21 17 16 23 22 19
10 15 17 17 17 16 13 7 4 2 2 2 3 4 6 7 9 12 13 14 16 18 19 20 22 29 32 26 18 23 28 24 19
11 16 19 19 18 17 14 9 5 3 3 3 4 5 7 8 9 12 13 14 16 18 20 21 23 27 36 33 23 25 30 29 19
14 16 19 20 19 17 15 11 7 4 4 4 4 5 7 8 10 12 13 14 15 17 20 21 25 28 37 38 26 24 33 33 28
15 18 20 20 20 18 16 14 10 6 5 5 5 6 7 8 10 12 14 14 16 16 18 20 27 33 37 41 27 23 36 36 40
17 18 19 21 21 19 19 17 13 9 7 7 7 7 7 8 11 12 14 15 15 16 19 21 28 37 40 45 30 30 40 41 42
18 20 21 22 21 21 20 19 17 14 12 10 9 9 10 9 11 13 14 15 15 16 18 22 30 41 45 52 40 44 42 46 44
18 22 23 23 23 23 22 21 20 19 18 16 13 11 12 13 14 16 16 15 15 16 19 23 32 43 50 60 51 52 47 52 48
15 18 23 25 27 26 24 23 22 22 21 19 18 17 15 16 17 18 18 17 16 18 21 25 32 48 57 60 60 54 55 56 49
15 17 20 24 27 30 30 29 28 27 26 25 24 23 22 21 20 20 20 20 20 18 21 28 38 49 64 65 60 59 62 64 49
17 18 18 21 25 29 30 31 33 34 33 33 33 32 30 29 27 25 23 24 21 19 23 32 50 61 69 70 73 70 70 59 49
29 28 21 21 23 26 29 31 32 34 37 41 39 40 43 42 41 37 34 29 24 22 25 49 64 70 70 70 76 79 73 56 56
50 35 33 40 44 39 30 28 28 30 34 36 35 44 48 56 58 53 43 36 37 34 36 58 62 76 74 70 73 78 66 61 58
93 79 80 66 46 44 44 53 54 49 41 38 33 42 43 45 61 61 71 58 61 60 62 67 77 81 75 71 82 67 58 61 58
92 96 97 90 88 92 94 92 82 67 73 87 70 72 60 46 54 65 90 92 94 97 86 80 86 83 74 81 75 58 59 60 56
95 96 95 96 94 96 96 98 96 94 95 93 96 96 97 97 96 91 90 82 91 89 91 91 91 89 87 86 78 59 60 59 57
71 79 94 97 96 95 96 96 97 96 96 96 97 98 98 94 98 95 96 94 71 79 94 95 93 84 85 84 72 60 51 60 56

GFSFLT1_500_rhum_111.txt.gz
RH
9 6 6 8 10 12 12 11 10 4 2 2 2 2 2 2 2 3 5 8 9 10 10 11 17 20 21 19 16 14 18 21 22
8 6 9 10 11 13 12 11 9 3 2 2 2 2 2 2 3 5 8 12 13 14 15 18 21 23 24 23 20 18 18 25 25
9 7 11 13 14 15 13 12 8 2 2 2 2 2 2 3 4 8 14 15 16 17 18 20 21 25 28 28 25 19 22 28 27
11 9 12 14 16 16 15 12 7 3 2 2 2 2 3 4 7 10 14 15 17 18 19 21 23 25 30 31 28 24 25 29 30
10 10 12 14 18 17 15 13 8 4 2 2 2 3 4 6 8 12 14 14 16 19 21 22 24 27 30 32 33 27 25 32 36
10 11 14 16 18 18 16 14 9 4 3 2 3 4 6 7 8 11 13 14 16 17 20 22 25 30 32 33 32 30 26 35 36
10 13 16 18 19 18 18 15 11 6 4 3 3 4 6 8 9 10 12 14 15 18 18 21 25 30 34 35 37 34 31 37 41
13 16 18 20 20 20 19 17 14 10 6 4 4 5 6 7 8 10 13 15 16 18 19 21 26 30 35 38 39 39 38 40 44
17 17 18 20 21 21 20 19 17 15 11 8 6 6 6 7 8 10 13 15 16 17 19 21 24 29 36 41 44 45 46 46 46
19 20 19 20 20 22 21 21 20 18 16 14 11 10 9 9 10 11 14 16 17 18 18 20 22 28 34 43 48 46 51 48 51
18 20 21 21 22 24 23 22 22 20 20 18 17 15 14 14 14 14 16 18 18 18 19 18 20 26 34 42 52 52 54 51 54
15 15 18 21 22 24 26 24 24 23 23 22 22 21 21 20 19 19 19 19 20 20 19 17 18 24 34 46 57 57 57 54 56
16 15 16 17 19 22 24 27 28 28 28 28 28 28 27 25 26 27 29 29 26 23 20 20 20 25 38 63 60 58 53 51 56
17 15 16 17 17 19 22 24 29 32 34 35 35 37 38 37 35 38 39 38 34 30 28 25 27 33 41 62 69 64 58 52 58
31 22 18 19 20 18 18 20 22 23 23 26 29 30 30 35 40 47 56 58 53 52 47 32 33 41 45 63 80 78 67 62 60
49 41 35 37 36 30 26 25 23 23 23 25 26 26 30 38 40 42 49 55 59 57 63 78 76 87 85 72 86 86 84 82 67
68 70 75 89 80 78 83 78 56 59 70 70 64 66 70 68 45 46 62 59 56 84 94 90 82 91 97 86 87 82 88 86 71
75 85 89 93 95 93 96 96 95 95 95 94 93 96 92 92 90 94 94 91 98 100 96 81 80 87 90 92 81 81 81 85 71
96 96 94 97 97 96 96 92 95 93 94 94 95 90 96 97 90 98 94 86 95 99 95 89 83 82 92 90 88 86 92 80 78
96 95 97 97 91 95 96 96 97 95 96 93 96 93 98 89 79 92 88 84 91 89 93 100 92 82 86 90 88 90 97 71 58

GFSFLT1_500_rhum_114.txt.gz
RH
10 9 6 7 9 10 12 12 10 8 3 2 2 2 2 2 2 3 7 11 12 13 14 17 20 21 23 23 24 23 21 23 27
11 8 6 8 10 12 13 13 10 7 3 2 2 2 2 2 2 5 10 14 15 16 18 19 20 22 22 23 25 25 23 25 28
12 7 7 9 12 12 14 13 11 7 3 2 2 2 2 2 4 8 14 16 17 18 19 20 22 24 25 25 26 26 23 26 31
14 9 8 10 13 13 15 14 12 8 2 2 2 2 2 3 6 10 14 16 17 19 21 22 24 26 27 29 28 27 26 26 32
13 11 10 10 14 14 15 16 14 8 3 2 2 3 3 5 7 10 13 15 16 18 21 22 24 27 30 31 32 31 30 31 34
18 11 12 12 14 16 16 16 15 9 4 3 2 3 4 6 8 9 12 14 16 17 19 21 23 27 30 33 35 35 35 34 36
17 12 12 15 17 18 19 18 16 11 6 4 3 3 5 7 8 9 10 13 16 17 20 21 22 27 30 33 38 40 39 38 39
13 11 14 16 18 20 19 19 18 15 10 6 4 4 5 6 7 8 10 12 14 16 18 20 22 24 26 31 37 43 45 43 44
16 14 16 18 19 20 20 20 20 19 16 12 8 7 6 7 7 8 9 12 15 17 19 19 21 20 22 28 34 41 49 48 47
22 18 17 19 20 21 21 21 21 20 20 18 16 14 12 11 10 10 12 15 18 19 20 22 21 18 20 26 33 42 52 52 48
22 21 20 20 20 21 21 22 22 22 22 21 21 20 19 19 19 18 18 18 20 21 24 23 20 19 22 24 30 51 60 57 52
25 19 19 20 20 22 22 23 24 24 24 24 23 24 24 24 24 23 24 25 27 30 28 26 27 28 26 25 31 53 59 62 58
17 20 18 17 18 21 23 25 26 28 28 28 29 30 30 31 31 32 32 34 36 37 38 36 39 44 37 33 42 58 60 66 65
17 17 17 17 18 18 20 23 24 27 30 32 33 33 32 33 35 35 35 38 41 51 56 55 56 56 56 62 74 78 81 70 71
18 18 18 16 16 16 17 18 18 18 18 20 22 23 24 25 25 26 30 36 40 46 49 54 58 64 77 71 72 74 71 72 75
18 18 19 19 17 17 24 29 28 28 40 48 46 48 54 54 51 52 53 57 53 62 86 92 82 87 82 79 72 80 84 76 71
21 30 39 40 33 55 76 74 88 88 77 67 64 79 93 94 91 82 81 86 88 89 90 88 91 96 87 81 73 76 86 86 83
51 54 57 61 70 90 94 96 89 83 85 91 88 90 92 96 97 94 95 98 94 90 94 89 87 96 91 79 73 72 81 83 88
68 69 83 95 90 87 96 87 89 97 97 95 93 94 89 90 90 90 88 86 82 85 94 92 93 90 80 86 87 84 77 82 82
97 95 93 94 95 96 98 96 98 97 93 95 92 93 89 98 98 96 88 82 82 90 89 87 96 94 92 90 90 89 87 84 90

GFSFLT1_500_rhum_117.txt.gz
RH
10 10 9 6 7 8 10 11 10 9 7 2 2 2 2 2 2 3 8 12 14 14 16 19 18 18 19 20 23 23 22 23 25
10 10 8 6 8 9 10 12 11 10 7 2 2 2 2 2 2 5 10 15 16 16 18 19 20 20 22 22 24 24 23 23 25
12 10 8 7 10 11 12 15 14 10 8 2 2 2 2 2 3 7 13 16 17 18 19 20 21 22 24 26 26 26 25 25 26
14 12 7 7 11 13 13 16 13 12 7 2 2 2 2 3 5 8 12 15 16 17 20 22 22 23 26 28 29 30 30 29 30
16 14 10 8 10 14 14 15 14 14 8 3 2 2 3 4 6 8 12 14 16 17 19 21 22 24 26 29 32 34 36 33 32
19 14 12 12 13 14 16 16 16 15 9 4 3 3 3 5 7 8 10 12 15 17 19 21 22 23 26 28 31 35 39 41 38
29 24 14 13 14 15 17 16 18 16 11 6 4 3 4 5 7 8 9 10 13 16 18 20 21 22 23 23 29 32 38 44 46
28 24 19 12 13 16 17 18 19 18 15 10 6 4 4 5 6 7 8 10 12 15 17 19 21 22 22 20 26 29 36 45 49
24 20 14 13 14 18 20 19 20 20 19 16 12 9 8 7 7 8 8 9 12 16 20 22 23 24 24 22 27 28 34 48 54
25 19 14 14 18 19 19 19 19 20 20 20 19 17 16 14 13 13 14 15 16 19 21 23 25 25 26 28 30 29 31 52 52
27 24 20 17 17 18 19 19 20 21 21 21 21 21 21 21 21 22 22 23 23 23 25 27 29 31 34 37 39 34 36 54 58
33 26 23 22 21 20 20 20 21 22 23 23 23 24 24 24 24 25 25 26 27 30 30 32 34 38 40 48 49 47 47 51 59
35 30 26 23 21 21 21 22 22 23 24 24 24 26 27 28 29 30 31 32 32 31 32 33 39 50 53 52 51 55 61 58 63
20 21 23 23 21 19 19 19 17 19 21 22 25 28 29 30 29 28 27 27 26 26 32 37 40 42 53 58 61 72 69 56 57
22 19 17 16 16 18 18 16 15 14 14 17 18 21 22 22 22 22 25 25 27 34 44 39 52 71 90 87 83 79 78 68 62
24 22 19 17 16 15 14 15 14 17 21 28 28 38 44 44 47 55 70 76 74 67 80 82 85 86 88 78 78 83 75 69 63
25 22 18 16 15 15 17 16 21 37 54 79 80 82 79 81 82 84 82 82 80 85 81 85 83 78 85 83 71 69 64 68 70
18 16 16 15 18 28 33 43 88 87 91 88 82 83 90 94 89 87 82 83 87 84 80 84 75 76 84 85 81 86 83 76 92
25 27 29 34 41 52 61 87 92 96 95 95 93 94 87 90 96 92 81 87 89 84 81 79 76 82 86 88 85 83 87 87 89
25 34 48 57 74 90 94 94 96 96 97 95 75 88 80 81 78 91 80 56 74 93 88 82 82 89 89 89 92 87 85 88 94

GFSFLT1_500_rhum_120.txt.gz
RH
7 8 8 8 6 7 7 10 10 10 8 6 2 2 2 2 2 3 8 13 14 15 17 17 17 17 20 23 23 23 24 22 22
9 9 9 8 7 8 8 13 15 12 10 6 2 2 2 2 2 5 10 14 16 16 18 18 18 19 20 22 23 25 26 25 26
10 10 10 8 7 9 10 15 20 16 10 6 2 2 2 2 3 6 12 15 16 17 18 20 20 20 21 22 26 29 32 31 30
13 11 10 8 7 11 12 14 20 14 11 7 2 2 2 2 3 7 12 14 16 17 18 20 21 21 22 24 27 29 32 35 36
16 12 11 8 8 11 14 15 16 13 12 7 3 2 2 2 4 7 10 13 15 16 18 19 21 22 22 24 26 29 30 34 36
16 15 13 10 9 10 14 15 18 14 14 8 4 2 3 3 5 7 9 11 13 16 17 19 20 22 22 23 24 25 28 32 37
18 18 14 12 13 14 14 17 17 14 15 9 4 3 3 4 6 7 8 9 10 13 16 17 19 21 22 23 24 25 29 30 41
25 24 22 16 16 20 16 16 16 15 16 13 8 4 4 4 5 6 7 8 9 11 14 17 20 22 23 25 26 28 31 31 34
33 31 28 24 20 14 15 17 15 15 17 18 15 11 8 7 6 7 8 9 10 12 15 18 22 23 24 26 28 31 34 35 33
37 35 29 20 17 14 15 18 17 16 17 18 19 18 17 15 14 13 13 15 17 18 19 21 23 25 27 30 31 32 39 42 43
39 37 27 20 15 14 18 19 18 18 17 18 19 20 20 20 20 20 21 22 23 24 24 25 26 28 29 28 30 36 46 46 48
40 36 27 21 16 15 18 19 19 19 19 20 20 20 21 21 22 23 23 24 25 26 26 27 28 27 27 28 36 41 49 45 46
40 34 28 24 22 21 20 21 20 21 21 21 21 21 21 21 23 24 26 27 28 28 27 26 24 25 31 41 45 51 64 64 59
40 36 31 28 25 23 23 22 21 20 20 19 21 19 20 20 21 23 23 23 23 22 20 20 21 27 34 43 59 66 63 60 61
42 38 35 31 27 25 23 21 20 18 16 14 14 15 17 17 15 15 16 15 17 24 35 46 55 63 63 74 72 71 70 68 61
30 25 22 21 19 18 17 16 17 17 16 15 18 20 21 22 26 34 41 45 51 69 75 73 74 72 75 68 72 68 75 76 81
35 29 25 22 20 18 17 16 14 14 16 21 29 35 64 71 72 75 79 80 79 75 68 68 74 78 80 78 78 74 78 84 79
36 32 28 25 23 20 17 14 13 17 25 41 63 87 82 77 80 77 81 78 71 71 60 71 73 69 68 71 71 72 74 68 66
39 35 31 27 23 18 15 18 24 31 77 88 87 89 81 77 80 73 70 53 64 58 40 58 33 34 52 64 67 71 78 80 78
40 34 27 22 18 17 23 33 45 70 93 91 89 87 46 62 59 78 38 42 60 56 26 26 21 26 38 66 73 71 71 79 85